Wetterdaten: Montag, 12.12.2011
Datum Zeit Temp. Innen Temp. Aussen UV X Diff Temp. Feuchte Inne Feuchte Auss Sonnenschein Luftdruck Regen ab 0,1 Wind Sonnenschein T Regendauer Windben
12.12.2011 00:00 13,6 C 5,1 C 0,0 UV-I 0,0 C 48 % 81 % 0 % 1005,3 hPa 0,0 l/m 9,2 km/h (2 Bft) 0 min 0 min 12,0 km/h (2 Bft)
12.12.2011 00:05 13,7 C 5,1 C 0,0 UV-I 0,0 C 48 % 81 % 0 % 1005,0 hPa 0,0 l/m 9,2 km/h (2 Bft) 0 min 0 min 17,3 km/h (3 Bft)
12.12.2011 00:10 13,6 C 5,1 C 0,0 UV-I 0,0 C 48 % 81 % 0 % 1005,0 hPa 0,0 l/m 8,8 km/h (2 Bft) 0 min 0 min 10,4 km/h (2 Bft)
12.12.2011 00:15 13,6 C 5,1 C 0,0 UV-I 0,0 C 48 % 81 % 0 % 1005,0 hPa 0,0 l/m 8,4 km/h (2 Bft) 0 min 0 min 5,6 km/h (1 Bft)
12.12.2011 00:20 13,6 C 5,1 C 0,0 UV-I 0,0 C 48 % 81 % 0 % 1005,0 hPa 0,0 l/m 8,0 km/h (2 Bft) 0 min 0 min 11,6 km/h (2 Bft)
12.12.2011 00:25 13,7 C 5,1 C 0,0 UV-I 0,0 C 48 % 81 % 0 % 1004,8 hPa 0,0 l/m 7,6 km/h (2 Bft) 0 min 0 min 15,3 km/h (3 Bft)
12.12.2011 00:30 13,7 C 4,9 C 0,0 UV-I 0,0 C 48 % 81 % 0 % 1004,8 hPa 0,0 l/m 7,6 km/h (2 Bft) 0 min 0 min 13,3 km/h (3 Bft)
12.12.2011 00:35 13,7 C 4,9 C 0,0 UV-I 0,0 C 48 % 81 % 0 % 1004,8 hPa 0,0 l/m 8,4 km/h (2 Bft) 0 min 0 min 10,0 km/h (2 Bft)
12.12.2011 00:40 13,7 C 4,9 C 0,0 UV-I 0,0 C 48 % 81 % 0 % 1004,8 hPa 0,0 l/m 8,8 km/h (2 Bft) 0 min 0 min 7,2 km/h (2 Bft)
12.12.2011 00:45 13,6 C 4,9 C 0,0 UV-I 0,0 C 48 % 81 % 0 % 1004,6 hPa 0,0 l/m 8,8 km/h (2 Bft) 0 min 0 min 10,8 km/h (2 Bft)
12.12.2011 00:50 13,7 C 4,9 C 0,0 UV-I 0,0 C 48 % 81 % 0 % 1004,6 hPa 0,0 l/m 7,6 km/h (2 Bft) 0 min 0 min 12,0 km/h (2 Bft)
12.12.2011 00:55 13,7 C 4,8 C 0,0 UV-I 0,0 C 48 % 82 % 0 % 1004,6 hPa 0,0 l/m 8,4 km/h (2 Bft) 0 min 0 min 9,6 km/h (2 Bft)
12.12.2011 01:00 13,7 C 4,8 C 0,0 UV-I 0,0 C 48 % 82 % 0 % 1004,6 hPa 0,0 l/m 8,4 km/h (2 Bft) 0 min 0 min 13,7 km/h (3 Bft)
12.12.2011 01:05 13,7 C 4,8 C 0,0 UV-I 0,0 C 48 % 82 % 0 % 1004,4 hPa 0,0 l/m 8,4 km/h (2 Bft) 0 min 0 min 0,0 km/h (0 Bft)
12.12.2011 01:10 13,7 C 4,9 C 0,0 UV-I 0,0 C 48 % 82 % 0 % 1004,4 hPa 0,0 l/m 7,6 km/h (2 Bft) 0 min 2 min 7,6 km/h (2 Bft)
12.12.2011 01:15 13,7 C 4,8 C 0,0 UV-I 0,0 C 48 % 82 % 0 % 1004,4 hPa 0,0 l/m 6,4 km/h (2 Bft) 0 min 0 min 9,2 km/h (2 Bft)
12.12.2011 01:20 13,6 C 4,7 C 0,0 UV-I 0,0 C 48 % 83 % 0 % 1004,4 hPa 0,0 l/m 7,2 km/h (2 Bft) 0 min 0 min 6,4 km/h (2 Bft)
12.12.2011 01:25 13,6 C 4,7 C 0,0 UV-I 0,0 C 48 % 83 % 0 % 1004,2 hPa 0,0 l/m 7,6 km/h (2 Bft) 0 min 0 min 8,8 km/h (2 Bft)
12.12.2011 01:30 13,7 C 4,7 C 0,0 UV-I 0,0 C 48 % 83 % 0 % 1004,2 hPa 0,0 l/m 6,8 km/h (2 Bft) 0 min 0 min 10,4 km/h (2 Bft)
12.12.2011 01:35 13,6 C 4,7 C 0,0 UV-I 0,0 C 48 % 84 % 0 % 1004,2 hPa 0,0 l/m 5,6 km/h (1 Bft) 0 min 0 min 9,6 km/h (2 Bft)
12.12.2011 01:40 13,6 C 4,7 C 0,0 UV-I 0,0 C 48 % 84 % 0 % 1004,2 hPa 0,0 l/m 6,8 km/h (2 Bft) 0 min 0 min 5,2 km/h (1 Bft)
12.12.2011 01:45 13,7 C 4,7 C 0,0 UV-I 0,0 C 48 % 84 % 0 % 1004,2 hPa 0,0 l/m 7,2 km/h (2 Bft) 0 min 0 min 12,0 km/h (2 Bft)
12.12.2011 01:50 13,6 C 4,7 C 0,0 UV-I 0,0 C 49 % 84 % 0 % 1004,2 hPa 0,0 l/m 7,2 km/h (2 Bft) 0 min 0 min 17,7 km/h (3 Bft)
12.12.2011 01:55 13,6 C 4,7 C 0,0 UV-I 0,0 C 49 % 85 % 0 % 1004,2 hPa 0,0 l/m 8,0 km/h (2 Bft) 0 min 0 min 11,6 km/h (2 Bft)
12.12.2011 02:00 13,6 C 4,8 C 0,0 UV-I 0,0 C 49 % 85 % 0 % 1004,2 hPa 0,0 l/m 8,4 km/h (2 Bft) 0 min 0 min 9,6 km/h (2 Bft)
12.12.2011 02:05 13,6 C 4,8 C 0,0 UV-I 0,0 C 49 % 85 % 0 % 1003,3 hPa 0,0 l/m 8,0 km/h (2 Bft) 0 min 0 min 0,0 km/h (0 Bft)
12.12.2011 02:10 13,6 C 4,8 C 0,0 UV-I 0,0 C 49 % 85 % 0 % 1003,3 hPa 0,0 l/m 7,2 km/h (2 Bft) 0 min 2 min 8,4 km/h (2 Bft)
12.12.2011 02:15 13,6 C 4,8 C 0,0 UV-I 0,0 C 49 % 86 % 0 % 1003,3 hPa 0,0 l/m 6,8 km/h (2 Bft) 0 min 0 min 7,2 km/h (2 Bft)
12.12.2011 02:20 13,6 C 4,8 C 0,0 UV-I 0,0 C 49 % 86 % 0 % 1003,3 hPa 0,0 l/m 6,4 km/h (2 Bft) 0 min 2 min 8,4 km/h (2 Bft)
12.12.2011 02:25 13,6 C 4,8 C 0,0 UV-I 0,0 C 49 % 86 % 0 % 1002,6 hPa 0,0 l/m 5,2 km/h (1 Bft) 0 min 2 min 5,2 km/h (1 Bft)
12.12.2011 02:30 13,6 C 4,8 C 0,0 UV-I 0,0 C 49 % 86 % 0 % 1002,6 hPa 0,0 l/m 4,8 km/h (1 Bft) 0 min 2 min 6,8 km/h (2 Bft)
12.12.2011 02:35 13,8 C 4,9 C 0,0 UV-I 0,0 C 49 % 86 % 0 % 1002,6 hPa 0,0 l/m 4,4 km/h (1 Bft) 0 min 0 min 6,4 km/h (2 Bft)
12.12.2011 02:40 13,8 C 4,9 C 0,0 UV-I 0,0 C 49 % 87 % 0 % 1002,6 hPa 0,1 l/m 6,0 km/h (2 Bft) 0 min 0 min 11,6 km/h (2 Bft)
12.12.2011 02:45 13,8 C 5,0 C 0,0 UV-I 0,0 C 49 % 87 % 0 % 1002,6 hPa 0,0 l/m 7,2 km/h (2 Bft) 0 min 0 min 9,6 km/h (2 Bft)
12.12.2011 02:50 13,6 C 5,1 C 0,0 UV-I 0,0 C 49 % 87 % 0 % 1002,6 hPa 0,0 l/m 8,8 km/h (2 Bft) 0 min 0 min 14,9 km/h (3 Bft)
12.12.2011 02:55 13,8 C 5,1 C 0,0 UV-I 0,0 C 50 % 88 % 0 % 1002,6 hPa 0,0 l/m 9,6 km/h (2 Bft) 0 min 0 min 13,7 km/h (3 Bft)
12.12.2011 03:00 13,8 C 5,2 C 0,0 UV-I 0,0 C 50 % 88 % 0 % 1002,6 hPa 0,0 l/m 10,0 km/h (2 Bft) 0 min 0 min 15,3 km/h (3 Bft)
12.12.2011 03:05 13,8 C 5,3 C 0,0 UV-I 0,0 C 50 % 88 % 0 % 1002,0 hPa 0,0 l/m 9,2 km/h (2 Bft) 0 min 2 min 9,6 km/h (2 Bft)
12.12.2011 03:10 13,8 C 5,3 C 0,0 UV-I 0,0 C 50 % 88 % 0 % 1002,0 hPa 0,0 l/m 10,0 km/h (2 Bft) 0 min 2 min 10,8 km/h (2 Bft)
12.12.2011 03:15 13,8 C 5,3 C 0,0 UV-I 0,0 C 50 % 88 % 0 % 1002,0 hPa 0,0 l/m 10,0 km/h (2 Bft) 0 min 2 min 10,0 km/h (2 Bft)
12.12.2011 03:20 13,8 C 5,5 C 0,0 UV-I 0,0 C 50 % 88 % 0 % 1002,0 hPa 0,0 l/m 10,4 km/h (2 Bft) 0 min 2 min 15,7 km/h (3 Bft)
12.12.2011 03:25 13,8 C 5,5 C 0,0 UV-I 0,0 C 50 % 89 % 0 % 1001,8 hPa 0,1 l/m 12,0 km/h (2 Bft) 0 min 2 min 15,7 km/h (3 Bft)
12.12.2011 03:30 13,8 C 5,5 C 0,0 UV-I 0,0 C 50 % 89 % 0 % 1001,8 hPa 0,0 l/m 11,6 km/h (2 Bft) 0 min 2 min 16,9 km/h (3 Bft)
12.12.2011 03:35 13,8 C 5,5 C 0,0 UV-I 0,0 C 50 % 89 % 0 % 1001,8 hPa 0,0 l/m 9,6 km/h (2 Bft) 0 min 0 min 15,3 km/h (3 Bft)
12.12.2011 03:40 13,8 C 5,5 C 0,0 UV-I 0,0 C 50 % 89 % 0 % 1001,8 hPa 0,0 l/m 9,6 km/h (2 Bft) 0 min 0 min 17,7 km/h (3 Bft)
12.12.2011 03:45 13,8 C 5,5 C 0,0 UV-I 0,0 C 50 % 89 % 0 % 1001,0 hPa 0,0 l/m 10,0 km/h (2 Bft) 0 min 0 min 11,2 km/h (2 Bft)
12.12.2011 03:50 13,8 C 5,6 C 0,0 UV-I 0,0 C 51 % 89 % 0 % 1001,0 hPa 0,0 l/m 10,8 km/h (2 Bft) 0 min 0 min 16,1 km/h (3 Bft)
12.12.2011 03:55 13,8 C 5,6 C 0,0 UV-I 0,0 C 51 % 89 % 0 % 1001,0 hPa 0,0 l/m 12,0 km/h (2 Bft) 0 min 0 min 16,5 km/h (3 Bft)
12.12.2011 04:00 13,8 C 5,7 C 0,0 UV-I 0,0 C 51 % 89 % 0 % 1001,0 hPa 0,0 l/m 11,2 km/h (2 Bft) 0 min 0 min 10,4 km/h (2 Bft)
12.12.2011 04:05 13,8 C 5,9 C 0,0 UV-I 0,0 C 51 % 89 % 0 % 1000,8 hPa 0,0 l/m 9,6 km/h (2 Bft) 0 min 0 min 15,3 km/h (3 Bft)
12.12.2011 04:10 13,8 C 5,9 C 0,0 UV-I 0,0 C 51 % 89 % 0 % 1000,8 hPa 0,0 l/m 10,0 km/h (2 Bft) 0 min 2 min 10,4 km/h (2 Bft)
12.12.2011 04:15 13,8 C 5,9 C 0,0 UV-I 0,0 C 51 % 89 % 0 % 1000,8 hPa 0,0 l/m 9,6 km/h (2 Bft) 0 min 0 min 10,4 km/h (2 Bft)
12.12.2011 04:20 13,8 C 6,0 C 0,0 UV-I 0,0 C 51 % 89 % 0 % 1000,8 hPa 0,0 l/m 9,6 km/h (2 Bft) 0 min 0 min 13,7 km/h (3 Bft)
12.12.2011 04:25 13,8 C 6,0 C 0,0 UV-I 0,0 C 51 % 89 % 0 % 1000,4 hPa 0,0 l/m 10,4 km/h (2 Bft) 0 min 0 min 12,8 km/h (3 Bft)
12.12.2011 04:30 13,8 C 6,0 C 0,0 UV-I 0,0 C 51 % 89 % 0 % 1000,4 hPa 0,0 l/m 8,4 km/h (2 Bft) 0 min 0 min 15,7 km/h (3 Bft)
12.12.2011 04:35 13,8 C 6,0 C 0,0 UV-I 0,0 C 51 % 89 % 0 % 1000,4 hPa 0,0 l/m 7,6 km/h (2 Bft) 0 min 0 min 6,4 km/h (2 Bft)
12.12.2011 04:40 13,8 C 6,1 C 0,0 UV-I 0,0 C 51 % 90 % 0 % 1000,4 hPa 0,0 l/m 6,8 km/h (2 Bft) 0 min 0 min 8,8 km/h (2 Bft)
12.12.2011 04:45 13,8 C 6,0 C 0,0 UV-I 0,0 C 51 % 89 % 0 % 1000,4 hPa 0,0 l/m 6,8 km/h (2 Bft) 0 min 0 min 7,6 km/h (2 Bft)
12.12.2011 04:50 13,8 C 6,0 C 0,0 UV-I 0,0 C 51 % 89 % 0 % 1000,4 hPa 0,0 l/m 6,0 km/h (2 Bft) 0 min 0 min 7,6 km/h (2 Bft)
12.12.2011 04:55 13,8 C 6,1 C 0,0 UV-I 0,0 C 51 % 90 % 0 % 1000,4 hPa 0,0 l/m 4,4 km/h (1 Bft) 0 min 0 min 5,6 km/h (1 Bft)
12.12.2011 05:00 13,8 C 6,1 C 0,0 UV-I 0,0 C 52 % 90 % 0 % 1000,4 hPa 0,0 l/m 5,2 km/h (1 Bft) 0 min 0 min 8,8 km/h (2 Bft)
12.12.2011 05:05 13,9 C 6,1 C 0,0 UV-I 0,0 C 52 % 89 % 0 % 1000,2 hPa 0,0 l/m 5,2 km/h (1 Bft) 0 min 0 min 7,2 km/h (2 Bft)
12.12.2011 05:10 13,9 C 6,2 C 0,0 UV-I 0,0 C 52 % 90 % 0 % 1000,2 hPa 0,0 l/m 6,0 km/h (2 Bft) 0 min 0 min 8,4 km/h (2 Bft)
12.12.2011 05:15 13,9 C 6,3 C 0,0 UV-I 0,0 C 52 % 90 % 0 % 1000,2 hPa 0,0 l/m 6,0 km/h (2 Bft) 0 min 0 min 9,6 km/h (2 Bft)
12.12.2011 05:20 13,9 C 6,3 C 0,0 UV-I 0,0 C 52 % 90 % 0 % 1000,2 hPa 0,0 l/m 6,8 km/h (2 Bft) 0 min 0 min 4,8 km/h (1 Bft)
12.12.2011 05:25 13,9 C 6,3 C 0,0 UV-I 0,0 C 52 % 90 % 0 % 1000,1 hPa 0,0 l/m 6,4 km/h (2 Bft) 0 min 0 min 10,4 km/h (2 Bft)
12.12.2011 05:30 13,9 C 6,3 C 0,0 UV-I 0,0 C 52 % 90 % 0 % 1000,1 hPa 0,0 l/m 4,8 km/h (1 Bft) 0 min 2 min 8,8 km/h (2 Bft)
12.12.2011 05:35 13,9 C 6,3 C 0,0 UV-I 0,0 C 52 % 90 % 0 % 1000,1 hPa 0,0 l/m 5,2 km/h (1 Bft) 0 min 0 min 6,4 km/h (2 Bft)
12.12.2011 05:40 13,8 C 6,3 C 0,0 UV-I 0,0 C 52 % 90 % 0 % 1000,1 hPa 0,0 l/m 6,4 km/h (2 Bft) 0 min 0 min 10,8 km/h (2 Bft)
12.12.2011 05:45 13,8 C 6,4 C 0,0 UV-I 0,0 C 52 % 90 % 0 % 999,6 hPa 0,0 l/m 7,2 km/h (2 Bft) 0 min 0 min 7,2 km/h (2 Bft)
12.12.2011 05:50 13,8 C 6,4 C 0,0 UV-I 0,0 C 52 % 90 % 0 % 999,6 hPa 0,0 l/m 6,8 km/h (2 Bft) 0 min 0 min 8,0 km/h (2 Bft)
12.12.2011 05:55 13,8 C 6,5 C 0,0 UV-I 0,0 C 52 % 90 % 0 % 999,6 hPa 0,0 l/m 6,0 km/h (2 Bft) 0 min 0 min 10,4 km/h (2 Bft)
12.12.2011 06:00 13,8 C 6,4 C 0,0 UV-I 0,0 C 53 % 90 % 0 % 999,6 hPa 0,0 l/m 6,0 km/h (2 Bft) 0 min 0 min 7,6 km/h (2 Bft)
12.12.2011 06:02 14,0 C 6,4 C 0,0 UV-I 0,0 C 53 % 90 % 0 % 999,6 hPa 0,0 l/m 6,0 km/h (2 Bft) 0 min 0 min 11,6 km/h (2 Bft)
12.12.2011 06:04 14,0 C 6,4 C 0,0 UV-I 0,0 C 53 % 90 % 0 % 999,8 hPa 0,0 l/m 6,4 km/h (2 Bft) 0 min 0 min 12,0 km/h (2 Bft)
12.12.2011 06:06 14,0 C 6,4 C 0,0 UV-I 0,0 C 53 % 90 % 0 % 999,8 hPa 0,0 l/m 6,0 km/h (2 Bft) 0 min 0 min 6,0 km/h (2 Bft)
12.12.2011 06:08 14,0 C 6,5 C 0,0 UV-I 0,0 C 53 % 90 % 0 % 999,8 hPa 0,0 l/m 6,0 km/h (2 Bft) 0 min 0 min 10,8 km/h (2 Bft)
12.12.2011 06:10 14,0 C 6,5 C 0,0 UV-I 0,0 C 53 % 90 % 0 % 999,8 hPa 0,0 l/m 6,0 km/h (2 Bft) 0 min 0 min 10,8 km/h (2 Bft)
12.12.2011 06:12 14,0 C 6,5 C 0,0 UV-I 0,0 C 53 % 90 % 0 % 999,8 hPa 0,0 l/m 5,2 km/h (1 Bft) 0 min 0 min 10,0 km/h (2 Bft)
12.12.2011 06:14 14,0 C 6,5 C 0,0 UV-I 0,0 C 53 % 90 % 0 % 999,8 hPa 0,0 l/m 4,8 km/h (1 Bft) 0 min 0 min 5,6 km/h (1 Bft)
12.12.2011 06:16 14,0 C 6,5 C 0,0 UV-I 0,0 C 53 % 90 % 0 % 999,8 hPa 0,0 l/m 4,0 km/h (1 Bft) 0 min 0 min 5,6 km/h (1 Bft)
12.12.2011 06:18 14,0 C 6,5 C 0,0 UV-I 0,0 C 53 % 90 % 0 % 999,8 hPa 0,0 l/m 4,4 km/h (1 Bft) 0 min 0 min 11,6 km/h (2 Bft)
12.12.2011 06:20 13,9 C 6,6 C 0,0 UV-I 0,0 C 53 % 90 % 0 % 999,8 hPa 0,0 l/m 4,4 km/h (1 Bft) 0 min 0 min 11,6 km/h (2 Bft)
12.12.2011 06:22 13,9 C 6,6 C 0,0 UV-I 0,0 C 53 % 90 % 0 % 999,8 hPa 0,0 l/m 4,8 km/h (1 Bft) 0 min 0 min 6,4 km/h (2 Bft)
12.12.2011 06:24 13,9 C 6,6 C 0,0 UV-I 0,0 C 53 % 90 % 0 % 999,9 hPa 0,0 l/m 4,8 km/h (1 Bft) 0 min 0 min 11,2 km/h (2 Bft)
12.12.2011 06:26 14,0 C 6,7 C 0,0 UV-I 0,0 C 53 % 90 % 0 % 999,9 hPa 0,0 l/m 6,0 km/h (2 Bft) 0 min 0 min 11,2 km/h (2 Bft)
12.12.2011 06:28 14,0 C 6,7 C 0,0 UV-I 0,0 C 53 % 90 % 0 % 999,9 hPa 0,0 l/m 6,8 km/h (2 Bft) 0 min 0 min 8,8 km/h (2 Bft)
12.12.2011 06:30 13,9 C 6,7 C 0,0 UV-I 0,0 C 53 % 90 % 0 % 999,9 hPa 0,0 l/m 7,2 km/h (2 Bft) 0 min 0 min 8,8 km/h (2 Bft)
12.12.2011 06:32 13,9 C 6,6 C 0,0 UV-I 0,0 C 53 % 90 % 0 % 999,9 hPa 0,0 l/m 6,8 km/h (2 Bft) 0 min 0 min 7,6 km/h (2 Bft)
12.12.2011 06:34 13,9 C 6,7 C 0,0 UV-I 0,0 C 53 % 90 % 0 % 999,9 hPa 0,0 l/m 6,8 km/h (2 Bft) 0 min 0 min 9,6 km/h (2 Bft)
12.12.2011 06:36 13,9 C 6,7 C 0,0 UV-I 0,0 C 53 % 90 % 0 % 999,9 hPa 0,0 l/m 6,0 km/h (2 Bft) 0 min 2 min 9,6 km/h (2 Bft)
12.12.2011 06:38 13,9 C 6,7 C 0,0 UV-I 0,0 C 53 % 90 % 0 % 999,9 hPa 0,0 l/m 5,6 km/h (1 Bft) 0 min 2 min 10,0 km/h (2 Bft)
12.12.2011 06:40 13,9 C 6,7 C 0,0 UV-I 0,0 C 53 % 90 % 0 % 999,9 hPa 0,0 l/m 5,2 km/h (1 Bft) 0 min 2 min 10,0 km/h (2 Bft)
12.12.2011 06:42 13,9 C 6,7 C 0,0 UV-I 0,0 C 53 % 90 % 0 % 999,9 hPa 0,0 l/m 5,2 km/h (1 Bft) 0 min 2 min 5,2 km/h (1 Bft)
12.12.2011 06:44 13,9 C 6,8 C 0,0 UV-I 0,0 C 53 % 90 % 0 % 999,4 hPa 0,0 l/m 4,8 km/h (1 Bft) 0 min 2 min 4,8 km/h (1 Bft)
12.12.2011 06:46 13,9 C 6,8 C 0,0 UV-I 0,0 C 53 % 90 % 0 % 999,4 hPa 0,1 l/m 4,8 km/h (1 Bft) 0 min 2 min 6,0 km/h (2 Bft)
12.12.2011 06:48 13,9 C 6,8 C 0,0 UV-I 0,0 C 53 % 90 % 0 % 999,4 hPa 0,0 l/m 4,8 km/h (1 Bft) 0 min 2 min 6,4 km/h (2 Bft)
12.12.2011 06:50 13,9 C 6,8 C 0,0 UV-I 0,0 C 53 % 90 % 0 % 999,4 hPa 0,0 l/m 3,6 km/h (1 Bft) 0 min 2 min 6,4 km/h (2 Bft)
12.12.2011 06:52 13,9 C 6,8 C 0,0 UV-I 0,0 C 53 % 90 % 0 % 999,4 hPa 0,0 l/m 2,8 km/h (1 Bft) 0 min 2 min 7,2 km/h (2 Bft)
12.12.2011 06:54 13,9 C 6,9 C 0,0 UV-I 0,0 C 53 % 90 % 0 % 999,4 hPa 0,0 l/m 2,8 km/h (1 Bft) 0 min 2 min 7,2 km/h (2 Bft)
12.12.2011 06:56 13,9 C 6,9 C 0,0 UV-I 0,0 C 53 % 90 % 0 % 999,4 hPa 0,1 l/m 2,4 km/h (1 Bft) 0 min 2 min 0,0 km/h (0 Bft)
12.12.2011 06:58 13,9 C 6,9 C 0,0 UV-I 0,0 C 53 % 90 % 0 % 999,4 hPa 0,1 l/m 1,6 km/h (1 Bft) 0 min 2 min 4,8 km/h (1 Bft)
12.12.2011 07:00 13,9 C 6,8 C 0,0 UV-I 0,0 C 53 % 90 % 0 % 999,4 hPa 0,0 l/m 1,2 km/h (1 Bft) 0 min 2 min 4,8 km/h (1 Bft)
12.12.2011 07:02 13,9 C 6,9 C 0,0 UV-I 0,0 C 53 % 90 % 0 % 999,4 hPa 0,0 l/m 2,0 km/h (1 Bft) 0 min 2 min 4,4 km/h (1 Bft)
12.12.2011 07:04 13,9 C 6,9 C 0,0 UV-I 0,0 C 53 % 90 % 0 % 999,9 hPa 0,1 l/m 1,6 km/h (1 Bft) 0 min 2 min 4,8 km/h (1 Bft)
12.12.2011 07:06 13,9 C 7,0 C 0,0 UV-I 0,0 C 53 % 90 % 0 % 999,9 hPa 0,0 l/m 1,2 km/h (1 Bft) 0 min 2 min 0,0 km/h (0 Bft)
12.12.2011 07:08 13,9 C 7,1 C 0,0 UV-I 0,0 C 53 % 90 % 0 % 999,9 hPa 0,1 l/m 1,2 km/h (1 Bft) 0 min 2 min 0,0 km/h (0 Bft)
12.12.2011 07:10 13,9 C 7,1 C 0,0 UV-I 0,0 C 53 % 90 % 0 % 999,9 hPa 0,1 l/m 0,8 km/h (0 Bft) 0 min 2 min 5,2 km/h (1 Bft)
12.12.2011 07:12 13,9 C 7,1 C 0,0 UV-I 0,0 C 53 % 90 % 0 % 999,9 hPa 0,0 l/m 0,8 km/h (0 Bft) 0 min 2 min 5,2 km/h (1 Bft)
12.12.2011 07:14 13,9 C 7,2 C 0,0 UV-I 0,0 C 53 % 90 % 0 % 999,9 hPa 0,1 l/m 0,8 km/h (0 Bft) 0 min 2 min 0,0 km/h (0 Bft)
12.12.2011 07:16 13,9 C 7,2 C 0,0 UV-I 0,0 C 54 % 91 % 0 % 999,9 hPa 0,0 l/m 1,2 km/h (1 Bft) 0 min 2 min 18,1 km/h (3 Bft)
12.12.2011 07:18 13,9 C 7,3 C 0,0 UV-I 0,0 C 54 % 91 % 0 % 999,9 hPa 0,0 l/m 1,6 km/h (1 Bft) 0 min 2 min 18,1 km/h (3 Bft)
12.12.2011 07:20 13,9 C 7,5 C 0,0 UV-I 0,0 C 54 % 91 % 0 % 999,9 hPa 0,0 l/m 1,6 km/h (1 Bft) 0 min 2 min 0,0 km/h (0 Bft)
12.12.2011 07:22 13,9 C 7,5 C 0,0 UV-I 0,0 C 54 % 91 % 0 % 999,9 hPa 0,1 l/m 1,6 km/h (1 Bft) 0 min 2 min 0,0 km/h (0 Bft)
12.12.2011 07:24 13,9 C 7,5 C 0,0 UV-I 0,0 C 54 % 91 % 0 % 1000,1 hPa 0,0 l/m 1,6 km/h (1 Bft) 0 min 2 min 0,0 km/h (0 Bft)
12.12.2011 07:26 13,9 C 7,6 C 0,0 UV-I 0,0 C 54 % 91 % 0 % 1000,1 hPa 0,0 l/m 1,2 km/h (1 Bft) 0 min 2 min 0,0 km/h (0 Bft)
12.12.2011 07:28 13,9 C 7,6 C 0,0 UV-I 0,0 C 54 % 91 % 0 % 1000,1 hPa 0,1 l/m 0,8 km/h (0 Bft) 0 min 2 min 5,6 km/h (1 Bft)
12.12.2011 07:30 13,9 C 7,6 C 0,0 UV-I 0,0 C 54 % 91 % 0 % 1000,1 hPa 0,0 l/m 1,2 km/h (1 Bft) 0 min 2 min 5,6 km/h (1 Bft)
12.12.2011 07:32 14,1 C 7,7 C 0,0 UV-I 0,0 C 54 % 91 % 0 % 1000,1 hPa 0,0 l/m 2,0 km/h (1 Bft) 0 min 2 min 12,4 km/h (3 Bft)
12.12.2011 07:34 13,9 C 7,7 C 0,0 UV-I 0,0 C 54 % 91 % 0 % 1000,1 hPa 0,1 l/m 2,4 km/h (1 Bft) 0 min 2 min 12,4 km/h (3 Bft)
12.12.2011 07:36 13,9 C 7,8 C 0,0 UV-I 0,0 C 54 % 91 % 0 % 1000,1 hPa 0,0 l/m 2,8 km/h (1 Bft) 0 min 2 min 8,8 km/h (2 Bft)
12.12.2011 07:38 13,9 C 7,9 C 0,0 UV-I 0,0 C 54 % 91 % 0 % 1000,1 hPa 0,1 l/m 3,2 km/h (1 Bft) 0 min 2 min 8,8 km/h (2 Bft)
12.12.2011 07:40 13,9 C 7,8 C 0,0 UV-I 0,0 C 55 % 91 % 0 % 1000,1 hPa 0,1 l/m 3,6 km/h (1 Bft) 0 min 2 min 4,8 km/h (1 Bft)
12.12.2011 07:42 14,1 C 7,9 C 0,0 UV-I 0,0 C 55 % 91 % 0 % 1000,1 hPa 0,0 l/m 3,2 km/h (1 Bft) 0 min 2 min 10,4 km/h (2 Bft)
12.12.2011 07:44 14,1 C 7,9 C 0,0 UV-I 0,0 C 55 % 91 % 0 % 1000,3 hPa 0,1 l/m 2,4 km/h (1 Bft) 0 min 2 min 10,4 km/h (2 Bft)
12.12.2011 07:46 13,9 C 7,9 C 0,0 UV-I 0,0 C 55 % 91 % 0 % 1000,3 hPa 0,0 l/m 2,8 km/h (1 Bft) 0 min 2 min 7,6 km/h (2 Bft)
12.12.2011 07:48 13,9 C 8,0 C 0,0 UV-I 0,0 C 55 % 91 % 0 % 1000,3 hPa 0,0 l/m 2,8 km/h (1 Bft) 0 min 2 min 7,6 km/h (2 Bft)
12.12.2011 07:50 13,9 C 8,0 C 0,0 UV-I 0,0 C 55 % 91 % 0 % 1000,3 hPa 0,1 l/m 2,4 km/h (1 Bft) 0 min 2 min 6,4 km/h (2 Bft)
12.12.2011 07:52 13,9 C 8,0 C 0,0 UV-I 0,0 C 55 % 91 % 0 % 1000,3 hPa 0,1 l/m 2,4 km/h (1 Bft) 0 min 2 min 4,0 km/h (1 Bft)
12.12.2011 07:54 13,9 C 8,0 C 0,0 UV-I 0,0 C 55 % 91 % 0 % 1000,3 hPa 0,0 l/m 2,8 km/h (1 Bft) 0 min 2 min 5,2 km/h (1 Bft)
12.12.2011 07:56 13,9 C 8,0 C 0,0 UV-I 0,0 C 56 % 91 % 0 % 1000,3 hPa 0,0 l/m 2,8 km/h (1 Bft) 0 min 2 min 5,2 km/h (1 Bft)
12.12.2011 07:58 13,9 C 8,0 C 0,0 UV-I 0,0 C 56 % 91 % 0 % 1000,3 hPa 0,0 l/m 4,0 km/h (1 Bft) 0 min 2 min 4,8 km/h (1 Bft)
12.12.2011 08:00 14,0 C 8,1 C 0,0 UV-I 0,0 C 56 % 91 % 0 % 1000,3 hPa 0,1 l/m 4,4 km/h (1 Bft) 0 min 0 min 11,2 km/h (2 Bft)
12.12.2011 08:02 13,9 C 8,1 C 0,0 UV-I 0,0 C 56 % 91 % 0 % 1000,3 hPa 0,0 l/m 5,6 km/h (1 Bft) 0 min 2 min 11,2 km/h (2 Bft)
12.12.2011 08:04 14,0 C 8,1 C 0,0 UV-I 0,0 C 56 % 91 % 0 % 1000,2 hPa 0,0 l/m 5,6 km/h (1 Bft) 0 min 2 min 7,2 km/h (2 Bft)
12.12.2011 08:06 14,0 C 8,1 C 0,0 UV-I 0,0 C 56 % 91 % 0 % 1000,2 hPa 0,1 l/m 5,2 km/h (1 Bft) 0 min 2 min 7,2 km/h (2 Bft)
12.12.2011 08:08 14,0 C 8,2 C 0,0 UV-I 0,0 C 56 % 91 % 0 % 1000,2 hPa 0,1 l/m 4,8 km/h (1 Bft) 0 min 2 min 5,6 km/h (1 Bft)
12.12.2011 08:10 14,0 C 8,2 C 0,0 UV-I 0,0 C 56 % 91 % 0 % 1000,2 hPa 0,0 l/m 4,8 km/h (1 Bft) 0 min 0 min 9,2 km/h (2 Bft)
12.12.2011 08:12 14,0 C 8,1 C 0,0 UV-I 0,0 C 56 % 91 % 0 % 1000,2 hPa 0,0 l/m 4,8 km/h (1 Bft) 0 min 0 min 9,2 km/h (2 Bft)
12.12.2011 08:14 14,0 C 8,3 C 0,0 UV-I 0,0 C 56 % 91 % 0 % 1000,2 hPa 0,1 l/m 4,8 km/h (1 Bft) 0 min 0 min 12,4 km/h (3 Bft)
12.12.2011 08:16 14,0 C 8,3 C 0,0 UV-I 0,0 C 56 % 91 % 0 % 1000,2 hPa 0,0 l/m 5,2 km/h (1 Bft) 0 min 0 min 12,4 km/h (3 Bft)
12.12.2011 08:18 14,0 C 8,3 C 0,0 UV-I 0,0 C 56 % 91 % 0 % 1000,2 hPa 0,0 l/m 5,6 km/h (1 Bft) 0 min 0 min 9,6 km/h (2 Bft)
12.12.2011 08:20 14,0 C 8,3 C 0,0 UV-I 0,0 C 56 % 91 % 0 % 1000,2 hPa 0,1 l/m 5,6 km/h (1 Bft) 0 min 0 min 9,6 km/h (2 Bft)
12.12.2011 08:22 14,0 C 8,2 C 0,0 UV-I 0,0 C 56 % 91 % 0 % 1000,2 hPa 0,0 l/m 6,8 km/h (2 Bft) 0 min 0 min 13,7 km/h (3 Bft)
12.12.2011 08:24 14,0 C 8,2 C 0,0 UV-I 0,0 C 57 % 91 % 0 % 1000,5 hPa 0,0 l/m 6,8 km/h (2 Bft) 0 min 0 min 13,7 km/h (3 Bft)
12.12.2011 08:26 14,0 C 8,2 C 0,0 UV-I 0,0 C 57 % 91 % 0 % 1000,5 hPa 0,1 l/m 6,8 km/h (2 Bft) 0 min 0 min 7,6 km/h (2 Bft)
12.12.2011 08:28 14,0 C 8,3 C 0,0 UV-I 0,0 C 57 % 91 % 0 % 1000,5 hPa 0,0 l/m 7,2 km/h (2 Bft) 0 min 0 min 8,4 km/h (2 Bft)
12.12.2011 08:30 14,0 C 8,3 C 0,0 UV-I 0,0 C 57 % 91 % 0 % 1000,5 hPa 0,0 l/m 7,2 km/h (2 Bft) 0 min 0 min 15,3 km/h (3 Bft)
12.12.2011 08:32 14,0 C 8,3 C 0,0 UV-I 0,0 C 57 % 91 % 0 % 1000,5 hPa 0,0 l/m 6,8 km/h (2 Bft) 0 min 0 min 15,3 km/h (3 Bft)
12.12.2011 08:34 14,0 C 8,2 C 0,0 UV-I 0,0 C 57 % 91 % 0 % 1000,5 hPa 0,0 l/m 6,8 km/h (2 Bft) 0 min 0 min 12,8 km/h (3 Bft)
12.12.2011 08:36 14,0 C 8,2 C 0,0 UV-I 0,0 C 57 % 91 % 0 % 1000,5 hPa 0,0 l/m 6,4 km/h (2 Bft) 0 min 0 min 12,4 km/h (3 Bft)
12.12.2011 08:38 14,0 C 8,2 C 0,0 UV-I 0,0 C 57 % 91 % 0 % 1000,5 hPa 0,0 l/m 6,8 km/h (2 Bft) 0 min 0 min 15,3 km/h (3 Bft)
12.12.2011 08:40 14,0 C 8,2 C 0,0 UV-I 0,0 C 57 % 91 % 0 % 1000,5 hPa 0,0 l/m 6,8 km/h (2 Bft) 0 min 0 min 15,3 km/h (3 Bft)
12.12.2011 08:42 14,0 C 8,2 C 0,0 UV-I 0,0 C 57 % 91 % 0 % 1000,5 hPa 0,1 l/m 7,2 km/h (2 Bft) 0 min 0 min 11,2 km/h (2 Bft)
12.12.2011 08:44 14,0 C 8,2 C 0,0 UV-I 0,0 C 57 % 91 % 0 % 1000,7 hPa 0,0 l/m 6,8 km/h (2 Bft) 0 min 0 min 9,6 km/h (2 Bft)
12.12.2011 08:46 14,0 C 8,3 C 0,0 UV-I 0,0 C 57 % 91 % 0 % 1000,7 hPa 0,0 l/m 7,2 km/h (2 Bft) 0 min 0 min 8,4 km/h (2 Bft)
12.12.2011 08:48 14,0 C 8,3 C 0,0 UV-I 0,0 C 57 % 91 % 0 % 1000,7 hPa 0,0 l/m 8,0 km/h (2 Bft) 0 min 0 min 13,3 km/h (3 Bft)
12.12.2011 08:50 14,0 C 8,3 C 0,0 UV-I 0,0 C 57 % 91 % 0 % 1000,7 hPa 0,0 l/m 7,6 km/h (2 Bft) 0 min 0 min 13,3 km/h (3 Bft)
12.12.2011 08:52 14,0 C 8,3 C 0,0 UV-I 0,0 C 57 % 91 % 0 % 1000,7 hPa 0,0 l/m 6,8 km/h (2 Bft) 0 min 0 min 9,6 km/h (2 Bft)
12.12.2011 08:54 14,0 C 8,3 C 0,0 UV-I 0,0 C 57 % 91 % 0 % 1000,7 hPa 0,0 l/m 6,4 km/h (2 Bft) 0 min 0 min 12,8 km/h (3 Bft)
12.12.2011 08:56 14,0 C 8,2 C 0,0 UV-I 0,0 C 57 % 91 % 0 % 1000,7 hPa 0,0 l/m 6,0 km/h (2 Bft) 0 min 0 min 12,8 km/h (3 Bft)
12.12.2011 08:58 14,0 C 8,3 C 0,0 UV-I 0,0 C 57 % 91 % 0 % 1000,7 hPa 0,0 l/m 6,0 km/h (2 Bft) 0 min 0 min 12,0 km/h (2 Bft)
12.12.2011 09:00 14,0 C 8,2 C 0,0 UV-I 0,0 C 57 % 91 % 0 % 1000,7 hPa 0,0 l/m 5,6 km/h (1 Bft) 0 min 0 min 12,0 km/h (2 Bft)
12.12.2011 09:02 14,0 C 8,2 C 0,0 UV-I 0,0 C 57 % 91 % 0 % 1000,7 hPa 0,0 l/m 6,4 km/h (2 Bft) 0 min 2 min 14,1 km/h (3 Bft)
12.12.2011 09:04 14,0 C 8,1 C 0,0 UV-I 0,0 C 57 % 91 % 0 % 1001,1 hPa 0,1 l/m 7,2 km/h (2 Bft) 0 min 2 min 16,9 km/h (3 Bft)
12.12.2011 09:06 14,0 C 8,1 C 0,0 UV-I 0,0 C 57 % 91 % 0 % 1001,1 hPa 0,0 l/m 7,2 km/h (2 Bft) 0 min 2 min 16,9 km/h (3 Bft)
12.12.2011 09:08 14,0 C 8,1 C 0,0 UV-I 0,0 C 57 % 91 % 0 % 1001,1 hPa 0,0 l/m 7,2 km/h (2 Bft) 0 min 2 min 8,0 km/h (2 Bft)
12.12.2011 09:10 14,0 C 8,1 C 0,0 UV-I 0,0 C 58 % 91 % 0 % 1001,1 hPa 0,0 l/m 8,0 km/h (2 Bft) 0 min 2 min 11,2 km/h (2 Bft)
12.12.2011 09:12 14,0 C 8,1 C 0,0 UV-I 0,0 C 58 % 91 % 0 % 1001,1 hPa 0,0 l/m 8,4 km/h (2 Bft) 0 min 2 min 11,2 km/h (2 Bft)
12.12.2011 09:14 14,0 C 8,1 C 0,0 UV-I 0,0 C 58 % 91 % 0 % 1001,1 hPa 0,0 l/m 8,4 km/h (2 Bft) 0 min 2 min 14,1 km/h (3 Bft)
12.12.2011 09:16 14,0 C 8,1 C 0,0 UV-I 0,0 C 58 % 91 % 0 % 1001,1 hPa 0,1 l/m 8,0 km/h (2 Bft) 0 min 2 min 14,1 km/h (3 Bft)
12.12.2011 09:18 14,0 C 8,1 C 0,0 UV-I 0,0 C 58 % 91 % 0 % 1001,1 hPa 0,0 l/m 8,0 km/h (2 Bft) 0 min 2 min 12,8 km/h (3 Bft)
12.12.2011 09:20 14,0 C 8,1 C 0,0 UV-I 0,0 C 58 % 91 % 0 % 1001,1 hPa 0,0 l/m 8,0 km/h (2 Bft) 0 min 2 min 8,8 km/h (2 Bft)
12.12.2011 09:22 14,0 C 8,1 C 0,0 UV-I 0,0 C 58 % 91 % 0 % 1001,1 hPa 0,0 l/m 8,0 km/h (2 Bft) 0 min 2 min 23,7 km/h (4 Bft)
12.12.2011 09:24 14,0 C 8,1 C 0,0 UV-I 0,0 C 58 % 91 % 0 % 1001,5 hPa 0,0 l/m 8,8 km/h (2 Bft) 0 min 0 min 23,7 km/h (4 Bft)
12.12.2011 09:26 14,0 C 8,0 C 0,0 UV-I 0,0 C 58 % 91 % 0 % 1001,5 hPa 0,0 l/m 8,8 km/h (2 Bft) 0 min 0 min 17,7 km/h (3 Bft)
12.12.2011 09:28 14,0 C 8,0 C 0,0 UV-I 0,0 C 58 % 91 % 0 % 1001,5 hPa 0,0 l/m 8,8 km/h (2 Bft) 0 min 2 min 16,9 km/h (3 Bft)
12.12.2011 09:30 14,0 C 8,0 C 0,0 UV-I 0,0 C 58 % 91 % 0 % 1001,5 hPa 0,0 l/m 8,8 km/h (2 Bft) 0 min 2 min 16,9 km/h (3 Bft)
12.12.2011 09:32 14,0 C 8,0 C 0,0 UV-I 0,0 C 58 % 91 % 0 % 1001,5 hPa 0,0 l/m 8,8 km/h (2 Bft) 0 min 2 min 12,8 km/h (3 Bft)
12.12.2011 09:34 14,0 C 8,0 C 0,0 UV-I 0,0 C 58 % 91 % 0 % 1001,5 hPa 0,1 l/m 8,0 km/h (2 Bft) 0 min 0 min 19,3 km/h (3 Bft)
12.12.2011 09:36 14,0 C 8,0 C 0,0 UV-I 0,0 C 58 % 91 % 0 % 1001,5 hPa 0,0 l/m 7,6 km/h (2 Bft) 0 min 0 min 19,3 km/h (3 Bft)
12.12.2011 09:38 14,0 C 8,0 C 0,0 UV-I 0,0 C 58 % 91 % 0 % 1001,5 hPa 0,0 l/m 7,2 km/h (2 Bft) 0 min 0 min 9,6 km/h (2 Bft)
12.12.2011 09:40 14,0 C 8,1 C 0,0 UV-I 0,0 C 58 % 91 % 0 % 1001,5 hPa 0,0 l/m 7,6 km/h (2 Bft) 0 min 0 min 15,3 km/h (3 Bft)
12.12.2011 09:42 14,0 C 8,0 C 0,0 UV-I 0,0 C 58 % 91 % 0 % 1001,5 hPa 0,0 l/m 7,6 km/h (2 Bft) 0 min 0 min 15,3 km/h (3 Bft)
12.12.2011 09:44 14,0 C 8,1 C 0,0 UV-I 0,0 C 58 % 91 % 0 % 1002,3 hPa 0,0 l/m 7,6 km/h (2 Bft) 0 min 0 min 7,6 km/h (2 Bft)
12.12.2011 09:46 14,0 C 8,0 C 0,0 UV-I 0,0 C 58 % 91 % 0 % 1002,3 hPa 0,0 l/m 6,4 km/h (2 Bft) 0 min 2 min 5,6 km/h (1 Bft)
12.12.2011 09:48 14,0 C 8,0 C 0,0 UV-I 0,0 C 58 % 91 % 0 % 1002,3 hPa 0,0 l/m 6,8 km/h (2 Bft) 0 min 2 min 8,8 km/h (2 Bft)
12.12.2011 09:50 14,0 C 8,0 C 0,0 UV-I 0,0 C 58 % 91 % 0 % 1002,3 hPa 0,0 l/m 6,8 km/h (2 Bft) 0 min 0 min 9,6 km/h (2 Bft)
12.12.2011 09:52 14,0 C 7,9 C 0,0 UV-I 0,0 C 58 % 91 % 0 % 1002,3 hPa 0,0 l/m 7,2 km/h (2 Bft) 0 min 0 min 12,8 km/h (3 Bft)
12.12.2011 09:54 14,0 C 7,9 C 0,0 UV-I 0,0 C 58 % 91 % 0 % 1002,3 hPa 0,0 l/m 7,2 km/h (2 Bft) 0 min 0 min 12,8 km/h (3 Bft)
12.12.2011 09:56 14,0 C 7,9 C 0,0 UV-I 0,0 C 58 % 91 % 0 % 1002,3 hPa 0,0 l/m 8,4 km/h (2 Bft) 0 min 0 min 11,6 km/h (2 Bft)
12.12.2011 09:58 14,0 C 7,9 C 0,0 UV-I 0,0 C 58 % 91 % 0 % 1002,3 hPa 0,0 l/m 8,0 km/h (2 Bft) 0 min 0 min 11,6 km/h (2 Bft)
12.12.2011 10:00 14,0 C 7,9 C 0,0 UV-I 0,0 C 58 % 91 % 0 % 1002,3 hPa 0,0 l/m 7,2 km/h (2 Bft) 0 min 2 min 4,8 km/h (1 Bft)
12.12.2011 10:02 14,0 C 7,8 C 0,0 UV-I 0,0 C 58 % 91 % 0 % 1002,3 hPa 0,0 l/m 6,8 km/h (2 Bft) 0 min 2 min 9,6 km/h (2 Bft)
12.12.2011 10:04 14,0 C 7,9 C 0,0 UV-I 0,0 C 58 % 91 % 0 % 1002,6 hPa 0,0 l/m 5,6 km/h (1 Bft) 0 min 2 min 8,0 km/h (2 Bft)
12.12.2011 10:06 14,0 C 7,9 C 0,0 UV-I 0,0 C 58 % 91 % 0 % 1002,6 hPa 0,0 l/m 5,2 km/h (1 Bft) 0 min 2 min 9,2 km/h (2 Bft)
12.12.2011 10:08 14,0 C 7,8 C 0,0 UV-I 0,0 C 58 % 91 % 0 % 1002,6 hPa 0,0 l/m 5,2 km/h (1 Bft) 0 min 0 min 9,2 km/h (2 Bft)
12.12.2011 10:10 14,0 C 7,9 C 0,0 UV-I 0,0 C 58 % 91 % 0 % 1002,6 hPa 0,0 l/m 5,6 km/h (1 Bft) 0 min 0 min 10,8 km/h (2 Bft)
12.12.2011 10:12 14,0 C 7,9 C 0,0 UV-I 0,0 C 58 % 91 % 0 % 1002,6 hPa 0,0 l/m 5,6 km/h (1 Bft) 0 min 0 min 12,8 km/h (3 Bft)
12.12.2011 10:14 14,0 C 7,8 C 0,0 UV-I 0,0 C 58 % 91 % 0 % 1002,6 hPa 0,0 l/m 5,6 km/h (1 Bft) 0 min 0 min 14,5 km/h (3 Bft)
12.12.2011 10:16 13,9 C 7,9 C 0,0 UV-I 0,0 C 58 % 91 % 0 % 1002,6 hPa 0,0 l/m 6,0 km/h (2 Bft) 0 min 0 min 14,5 km/h (3 Bft)
12.12.2011 10:18 13,9 C 7,9 C 0,0 UV-I 0,0 C 58 % 91 % 0 % 1002,6 hPa 0,0 l/m 5,6 km/h (1 Bft) 0 min 0 min 7,6 km/h (2 Bft)
12.12.2011 10:20 13,9 C 7,9 C 0,0 UV-I 0,0 C 58 % 91 % 0 % 1002,6 hPa 0,0 l/m 4,4 km/h (1 Bft) 0 min 0 min 7,6 km/h (2 Bft)
12.12.2011 10:22 13,9 C 7,9 C 0,0 UV-I 0,0 C 58 % 91 % 0 % 1002,6 hPa 0,0 l/m 4,4 km/h (1 Bft) 0 min 0 min 9,2 km/h (2 Bft)
12.12.2011 10:24 13,9 C 7,8 C 0,0 UV-I 0,0 C 58 % 91 % 0 % 1003,2 hPa 0,0 l/m 4,8 km/h (1 Bft) 0 min 0 min 14,1 km/h (3 Bft)
12.12.2011 10:26 13,9 C 7,8 C 0,0 UV-I 0,0 C 58 % 91 % 0 % 1003,2 hPa 0,0 l/m 4,4 km/h (1 Bft) 0 min 0 min 18,9 km/h (3 Bft)
12.12.2011 10:28 13,9 C 7,9 C 0,0 UV-I 0,0 C 58 % 91 % 0 % 1003,2 hPa 0,0 l/m 4,8 km/h (1 Bft) 0 min 0 min 18,9 km/h (3 Bft)
12.12.2011 10:30 13,9 C 7,8 C 0,0 UV-I 0,0 C 58 % 91 % 0 % 1003,2 hPa 0,0 l/m 5,2 km/h (1 Bft) 0 min 0 min 12,0 km/h (2 Bft)
12.12.2011 10:32 13,9 C 7,9 C 0,0 UV-I 0,0 C 58 % 91 % 0 % 1003,2 hPa 0,0 l/m 6,4 km/h (2 Bft) 0 min 0 min 12,0 km/h (2 Bft)
12.12.2011 10:34 13,9 C 7,9 C 0,0 UV-I 0,0 C 58 % 91 % 0 % 1003,2 hPa 0,0 l/m 6,4 km/h (2 Bft) 0 min 0 min 12,0 km/h (2 Bft)
12.12.2011 10:36 13,9 C 7,8 C 0,0 UV-I 0,0 C 58 % 91 % 0 % 1003,2 hPa 0,0 l/m 6,4 km/h (2 Bft) 0 min 0 min 9,2 km/h (2 Bft)
12.12.2011 10:38 14,1 C 7,9 C 0,0 UV-I 0,0 C 58 % 91 % 0 % 1003,2 hPa 0,0 l/m 6,4 km/h (2 Bft) 0 min 0 min 11,2 km/h (2 Bft)
12.12.2011 10:40 14,1 C 7,8 C 0,0 UV-I 0,0 C 58 % 91 % 0 % 1003,2 hPa 0,0 l/m 6,0 km/h (2 Bft) 0 min 0 min 20,9 km/h (4 Bft)
12.12.2011 10:42 14,1 C 7,8 C 0,0 UV-I 0,0 C 58 % 91 % 0 % 1003,2 hPa 0,0 l/m 6,4 km/h (2 Bft) 0 min 0 min 20,9 km/h (4 Bft)
12.12.2011 10:44 13,9 C 7,9 C 0,0 UV-I 0,0 C 58 % 91 % 0 % 1003,8 hPa 0,0 l/m 6,0 km/h (2 Bft) 0 min 0 min 12,8 km/h (3 Bft)
12.12.2011 10:46 13,9 C 7,9 C 0,0 UV-I 0,0 C 58 % 91 % 0 % 1003,8 hPa 0,0 l/m 6,0 km/h (2 Bft) 0 min 0 min 11,6 km/h (2 Bft)
12.12.2011 10:48 13,9 C 7,9 C 0,0 UV-I 0,0 C 58 % 91 % 0 % 1003,8 hPa 0,0 l/m 6,4 km/h (2 Bft) 0 min 0 min 11,6 km/h (2 Bft)
12.12.2011 10:50 14,1 C 7,9 C 0,0 UV-I 0,0 C 58 % 91 % 0 % 1003,8 hPa 0,0 l/m 6,8 km/h (2 Bft) 0 min 0 min 9,2 km/h (2 Bft)
12.12.2011 10:52 13,9 C 7,9 C 0,0 UV-I 0,0 C 58 % 91 % 0 % 1003,8 hPa 0,0 l/m 6,4 km/h (2 Bft) 0 min 0 min 8,4 km/h (2 Bft)
12.12.2011 10:54 14,1 C 7,9 C 0,0 UV-I 0,0 C 58 % 91 % 0 % 1003,8 hPa 0,0 l/m 6,0 km/h (2 Bft) 0 min 0 min 8,8 km/h (2 Bft)
12.12.2011 10:56 14,1 C 7,9 C 0,0 UV-I 0,0 C 58 % 91 % 0 % 1003,8 hPa 0,0 l/m 6,4 km/h (2 Bft) 0 min 0 min 14,1 km/h (3 Bft)
12.12.2011 10:58 14,1 C 7,9 C 0,0 UV-I 0,0 C 57 % 91 % 0 % 1003,8 hPa 0,0 l/m 7,2 km/h (2 Bft) 0 min 0 min 14,1 km/h (3 Bft)
12.12.2011 11:00 14,1 C 7,9 C 0,0 UV-I 0,0 C 58 % 91 % 0 % 1003,8 hPa 0,0 l/m 6,8 km/h (2 Bft) 0 min 0 min 8,8 km/h (2 Bft)
12.12.2011 11:02 14,1 C 7,9 C 0,0 UV-I 0,0 C 58 % 91 % 0 % 1003,8 hPa 0,0 l/m 6,4 km/h (2 Bft) 0 min 0 min 8,8 km/h (2 Bft)
12.12.2011 11:04 14,1 C 8,0 C 0,0 UV-I 0,0 C 58 % 91 % 0 % 1004,0 hPa 0,0 l/m 6,4 km/h (2 Bft) 0 min 0 min 11,2 km/h (2 Bft)
12.12.2011 11:06 14,1 C 7,9 C 0,0 UV-I 0,0 C 58 % 91 % 0 % 1004,0 hPa 0,0 l/m 6,4 km/h (2 Bft) 0 min 0 min 11,2 km/h (2 Bft)
12.12.2011 11:08 14,1 C 7,9 C 0,0 UV-I 0,0 C 57 % 91 % 0 % 1004,0 hPa 0,0 l/m 6,0 km/h (2 Bft) 0 min 0 min 9,6 km/h (2 Bft)
12.12.2011 11:10 14,1 C 7,9 C 0,0 UV-I 0,0 C 57 % 91 % 0 % 1004,0 hPa 0,0 l/m 6,4 km/h (2 Bft) 0 min 0 min 12,8 km/h (3 Bft)
12.12.2011 11:12 14,1 C 7,9 C 0,0 UV-I 0,0 C 57 % 91 % 0 % 1004,0 hPa 0,0 l/m 7,6 km/h (2 Bft) 0 min 0 min 12,8 km/h (3 Bft)
12.12.2011 11:14 14,1 C 7,9 C 0,0 UV-I 0,0 C 57 % 91 % 0 % 1004,0 hPa 0,0 l/m 8,0 km/h (2 Bft) 0 min 0 min 11,6 km/h (2 Bft)
12.12.2011 11:16 14,1 C 7,9 C 0,0 UV-I 0,0 C 57 % 91 % 0 % 1004,0 hPa 0,0 l/m 7,6 km/h (2 Bft) 0 min 0 min 19,3 km/h (3 Bft)
12.12.2011 11:18 14,1 C 7,9 C 0,0 UV-I 0,0 C 57 % 91 % 0 % 1004,0 hPa 0,0 l/m 8,4 km/h (2 Bft) 0 min 0 min 19,3 km/h (3 Bft)
12.12.2011 11:20 14,1 C 7,9 C 0,0 UV-I 0,0 C 57 % 91 % 0 % 1004,0 hPa 0,0 l/m 8,0 km/h (2 Bft) 0 min 0 min 8,0 km/h (2 Bft)
12.12.2011 11:22 14,1 C 7,9 C 0,0 UV-I 0,0 C 57 % 91 % 0 % 1004,0 hPa 0,0 l/m 8,0 km/h (2 Bft) 0 min 0 min 14,5 km/h (3 Bft)
12.12.2011 11:24 14,1 C 7,9 C 0,0 UV-I 0,0 C 57 % 91 % 0 % 1004,5 hPa 0,0 l/m 8,4 km/h (2 Bft) 0 min 0 min 14,5 km/h (3 Bft)
12.12.2011 11:26 14,1 C 7,9 C 0,0 UV-I 0,0 C 57 % 90 % 0 % 1004,5 hPa 0,0 l/m 9,2 km/h (2 Bft) 0 min 0 min 8,8 km/h (2 Bft)
12.12.2011 11:28 14,1 C 7,9 C 0,0 UV-I 0,0 C 57 % 90 % 0 % 1004,5 hPa 0,0 l/m 9,2 km/h (2 Bft) 0 min 0 min 15,3 km/h (3 Bft)
12.12.2011 11:30 14,1 C 7,9 C 0,0 UV-I 0,0 C 57 % 90 % 0 % 1004,5 hPa 0,0 l/m 9,6 km/h (2 Bft) 0 min 0 min 22,9 km/h (4 Bft)
12.12.2011 11:32 14,2 C 7,9 C 0,0 UV-I 0,0 C 57 % 90 % 0 % 1004,5 hPa 0,0 l/m 11,2 km/h (2 Bft) 0 min 0 min 26,1 km/h (4 Bft)
12.12.2011 11:34 14,2 C 7,8 C 0,0 UV-I 0,0 C 57 % 90 % 0 % 1004,5 hPa 0,0 l/m 10,8 km/h (2 Bft) 0 min 0 min 26,1 km/h (4 Bft)
12.12.2011 11:36 14,2 C 8,0 C 0,0 UV-I 0,0 C 57 % 90 % 0 % 1004,5 hPa 0,0 l/m 10,0 km/h (2 Bft) 0 min 0 min 16,9 km/h (3 Bft)
12.12.2011 11:38 14,2 C 7,9 C 0,0 UV-I 0,0 C 57 % 90 % 0 % 1004,5 hPa 0,0 l/m 10,4 km/h (2 Bft) 0 min 0 min 16,9 km/h (3 Bft)
12.12.2011 11:40 14,2 C 7,9 C 0,0 UV-I 0,0 C 57 % 90 % 0 % 1004,5 hPa 0,0 l/m 10,0 km/h (2 Bft) 0 min 0 min 19,3 km/h (3 Bft)
12.12.2011 11:42 14,2 C 7,9 C 0,0 UV-I 0,0 C 57 % 90 % 0 % 1004,5 hPa 0,0 l/m 9,6 km/h (2 Bft) 0 min 0 min 19,3 km/h (3 Bft)
12.12.2011 11:44 14,2 C 7,9 C 0,0 UV-I 0,0 C 57 % 89 % 0 % 1004,8 hPa 0,0 l/m 9,6 km/h (2 Bft) 0 min 0 min 20,9 km/h (4 Bft)
12.12.2011 11:46 14,2 C 7,9 C 0,0 UV-I 0,0 C 57 % 89 % 0 % 1004,8 hPa 0,0 l/m 9,2 km/h (2 Bft) 0 min 0 min 20,9 km/h (4 Bft)
12.12.2011 11:48 14,2 C 7,9 C 0,0 UV-I 0,0 C 57 % 89 % 0 % 1004,8 hPa 0,0 l/m 9,2 km/h (2 Bft) 0 min 0 min 7,2 km/h (2 Bft)
12.12.2011 11:50 14,2 C 7,9 C 0,0 UV-I 0,0 C 57 % 89 % 0 % 1004,8 hPa 0,0 l/m 9,2 km/h (2 Bft) 0 min 0 min 8,4 km/h (2 Bft)
12.12.2011 11:52 14,2 C 8,0 C 0,0 UV-I 0,0 C 57 % 89 % 0 % 1004,8 hPa 0,0 l/m 9,6 km/h (2 Bft) 0 min 0 min 4,8 km/h (1 Bft)
12.12.2011 11:54 14,1 C 7,9 C 0,0 UV-I 0,0 C 57 % 89 % 0 % 1004,8 hPa 0,0 l/m 8,8 km/h (2 Bft) 0 min 0 min 5,6 km/h (1 Bft)
12.12.2011 11:56 14,2 C 7,9 C 0,0 UV-I 0,0 C 57 % 89 % 0 % 1004,8 hPa 0,0 l/m 8,8 km/h (2 Bft) 0 min 0 min 24,5 km/h (4 Bft)
12.12.2011 11:58 14,2 C 7,9 C 0,0 UV-I 0,0 C 57 % 89 % 0 % 1004,8 hPa 0,0 l/m 9,6 km/h (2 Bft) 0 min 0 min 24,5 km/h (4 Bft)
12.12.2011 12:00 14,2 C 7,9 C 0,0 UV-I 0,0 C 57 % 88 % 0 % 1004,8 hPa 0,0 l/m 10,0 km/h (2 Bft) 0 min 0 min 10,4 km/h (2 Bft)
12.12.2011 12:02 14,2 C 7,9 C 0,0 UV-I 0,0 C 57 % 88 % 0 % 1004,8 hPa 0,0 l/m 10,4 km/h (2 Bft) 0 min 0 min 41,4 km/h (6 Bft)
12.12.2011 12:04 14,2 C 7,9 C 0,0 UV-I 0,0 C 57 % 89 % 0 % 1005,1 hPa 0,0 l/m 9,2 km/h (2 Bft) 0 min 0 min 7,2 km/h (2 Bft)
12.12.2011 12:06 14,1 C 7,9 C 0,0 UV-I 0,0 C 56 % 89 % 0 % 1005,1 hPa 0,0 l/m 9,6 km/h (2 Bft) 0 min 0 min 8,4 km/h (2 Bft)
12.12.2011 12:08 14,1 C 7,9 C 0,0 UV-I 0,0 C 56 % 88 % 0 % 1005,1 hPa 0,0 l/m 8,8 km/h (2 Bft) 0 min 0 min 19,3 km/h (3 Bft)
12.12.2011 12:10 14,1 C 7,9 C 0,0 UV-I 0,0 C 56 % 88 % 0 % 1005,1 hPa 0,0 l/m 8,4 km/h (2 Bft) 0 min 0 min 19,3 km/h (3 Bft)
12.12.2011 12:12 14,1 C 7,9 C 0,0 UV-I 0,0 C 57 % 88 % 0 % 1005,1 hPa 0,0 l/m 8,8 km/h (2 Bft) 0 min 0 min 12,0 km/h (2 Bft)
12.12.2011 12:14 14,3 C 7,9 C 0,0 UV-I 0,0 C 56 % 88 % 0 % 1005,1 hPa 0,0 l/m 8,4 km/h (2 Bft) 0 min 0 min 12,0 km/h (2 Bft)
12.12.2011 12:16 14,3 C 7,9 C 0,0 UV-I 0,0 C 56 % 88 % 0 % 1005,1 hPa 0,0 l/m 9,2 km/h (2 Bft) 0 min 0 min 10,4 km/h (2 Bft)
12.12.2011 12:18 14,3 C 7,9 C 0,0 UV-I 0,0 C 56 % 88 % 0 % 1005,1 hPa 0,0 l/m 8,4 km/h (2 Bft) 0 min 0 min 10,4 km/h (2 Bft)
12.12.2011 12:20 14,3 C 7,9 C 0,0 UV-I 0,0 C 56 % 88 % 0 % 1005,1 hPa 0,0 l/m 8,8 km/h (2 Bft) 0 min 0 min 16,1 km/h (3 Bft)
12.12.2011 12:22 14,3 C 7,9 C 0,0 UV-I 0,0 C 56 % 88 % 0 % 1005,1 hPa 0,0 l/m 8,4 km/h (2 Bft) 0 min 0 min 16,1 km/h (3 Bft)
12.12.2011 12:24 14,3 C 8,0 C 0,0 UV-I 0,0 C 56 % 88 % 0 % 1005,2 hPa 0,0 l/m 7,6 km/h (2 Bft) 0 min 0 min 10,4 km/h (2 Bft)
12.12.2011 12:26 14,3 C 8,0 C 0,0 UV-I 0,0 C 56 % 87 % 0 % 1005,2 hPa 0,0 l/m 8,4 km/h (2 Bft) 0 min 0 min 26,5 km/h (4 Bft)
12.12.2011 12:28 14,3 C 8,0 C 0,0 UV-I 0,0 C 56 % 86 % 0 % 1005,2 hPa 0,0 l/m 10,0 km/h (2 Bft) 0 min 0 min 26,5 km/h (4 Bft)
12.12.2011 12:30 14,3 C 8,0 C 0,0 UV-I 0,0 C 56 % 86 % 0 % 1005,2 hPa 0,0 l/m 10,0 km/h (2 Bft) 0 min 0 min 12,8 km/h (3 Bft)
12.12.2011 12:32 14,3 C 8,0 C 0,0 UV-I 0,0 C 56 % 86 % 0 % 1005,2 hPa 0,0 l/m 10,0 km/h (2 Bft) 0 min 0 min 15,3 km/h (3 Bft)
12.12.2011 12:34 14,3 C 8,0 C 0,0 UV-I 0,0 C 56 % 86 % 0 % 1005,2 hPa 0,0 l/m 10,4 km/h (2 Bft) 0 min 0 min 15,3 km/h (3 Bft)
12.12.2011 12:36 14,2 C 8,0 C 0,0 UV-I 0,0 C 56 % 86 % 0 % 1005,2 hPa 0,0 l/m 10,8 km/h (2 Bft) 0 min 0 min 9,6 km/h (2 Bft)
12.12.2011 12:38 14,2 C 8,1 C 0,0 UV-I 0,0 C 56 % 86 % 0 % 1005,2 hPa 0,0 l/m 8,8 km/h (2 Bft) 0 min 0 min 11,2 km/h (2 Bft)
12.12.2011 12:40 14,2 C 8,0 C 0,0 UV-I 0,1 C 56 % 86 % 3 % 1005,2 hPa 0,0 l/m 8,8 km/h (2 Bft) 0 min 0 min 14,1 km/h (3 Bft)
12.12.2011 12:42 14,2 C 8,0 C 0,0 UV-I 0,0 C 56 % 86 % 0 % 1005,2 hPa 0,0 l/m 9,6 km/h (2 Bft) 0 min 0 min 21,7 km/h (4 Bft)
12.12.2011 12:44 14,4 C 8,0 C 0,0 UV-I 0,0 C 56 % 86 % 0 % 1005,8 hPa 0,0 l/m 10,0 km/h (2 Bft) 0 min 0 min 21,7 km/h (4 Bft)
12.12.2011 12:46 14,2 C 8,0 C 0,0 UV-I 0,0 C 56 % 85 % 0 % 1005,8 hPa 0,0 l/m 10,4 km/h (2 Bft) 0 min 0 min 16,9 km/h (3 Bft)
12.12.2011 12:48 14,2 C 7,9 C 0,0 UV-I 0,0 C 56 % 85 % 0 % 1005,8 hPa 0,0 l/m 11,2 km/h (2 Bft) 0 min 0 min 14,1 km/h (3 Bft)
12.12.2011 12:50 14,4 C 7,9 C 0,0 UV-I 0,0 C 56 % 85 % 0 % 1005,8 hPa 0,0 l/m 12,0 km/h (2 Bft) 0 min 0 min 10,4 km/h (2 Bft)
12.12.2011 12:52 14,4 C 7,9 C 0,0 UV-I 0,0 C 56 % 85 % 0 % 1005,8 hPa 0,0 l/m 11,2 km/h (2 Bft) 0 min 0 min 30,5 km/h (5 Bft)
12.12.2011 12:54 14,2 C 7,8 C 0,0 UV-I 0,0 C 56 % 83 % 0 % 1005,8 hPa 0,0 l/m 11,2 km/h (2 Bft) 0 min 0 min 30,5 km/h (5 Bft)
12.12.2011 12:56 14,4 C 7,8 C 0,0 UV-I 0,0 C 56 % 84 % 0 % 1005,8 hPa 0,0 l/m 11,2 km/h (2 Bft) 0 min 0 min 22,5 km/h (4 Bft)
12.12.2011 12:58 14,2 C 7,7 C 0,0 UV-I 0,0 C 56 % 83 % 0 % 1005,8 hPa 0,0 l/m 11,6 km/h (2 Bft) 0 min 0 min 20,1 km/h (4 Bft)
12.12.2011 13:00 14,2 C 7,7 C 0,0 UV-I 0,0 C 55 % 83 % 0 % 1005,8 hPa 0,0 l/m 11,6 km/h (2 Bft) 0 min 0 min 37,3 km/h (5 Bft)
12.12.2011 13:02 14,2 C 7,7 C 0,0 UV-I 0,0 C 55 % 83 % 0 % 1005,8 hPa 0,1 l/m 12,8 km/h (3 Bft) 0 min 0 min 37,3 km/h (5 Bft)
12.12.2011 13:04 14,2 C 7,7 C 0,0 UV-I 0,0 C 55 % 83 % 0 % 1005,9 hPa 0,0 l/m 12,0 km/h (2 Bft) 0 min 0 min 4,0 km/h (1 Bft)
12.12.2011 13:06 14,2 C 7,9 C 0,0 UV-I 0,0 C 55 % 84 % 0 % 1005,9 hPa 0,0 l/m 11,2 km/h (2 Bft) 0 min 0 min 10,8 km/h (2 Bft)
12.12.2011 13:08 14,4 C 7,9 C 0,1 UV-I 1,0 C 55 % 83 % 29 % 1005,9 hPa 0,0 l/m 10,4 km/h (2 Bft) 0 min 0 min 10,8 km/h (2 Bft)
12.12.2011 13:10 14,4 C 8,0 C 0,1 UV-I 1,7 C 55 % 83 % 49 % 1005,9 hPa 0,0 l/m 10,0 km/h (2 Bft) 0 min 0 min 13,3 km/h (3 Bft)
12.12.2011 13:12 14,4 C 8,0 C 0,1 UV-I 2,1 C 55 % 83 % 60 % 1005,9 hPa 0,0 l/m 8,8 km/h (2 Bft) 0 min 0 min 13,3 km/h (3 Bft)
12.12.2011 13:14 14,4 C 8,1 C 0,1 UV-I 2,2 C 55 % 83 % 63 % 1005,9 hPa 0,0 l/m 8,8 km/h (2 Bft) 0 min 0 min 14,9 km/h (3 Bft)
12.12.2011 13:16 14,4 C 8,1 C 0,1 UV-I 1,8 C 55 % 83 % 51 % 1005,9 hPa 0,0 l/m 9,2 km/h (2 Bft) 0 min 0 min 14,9 km/h (3 Bft)
12.12.2011 13:18 14,4 C 8,0 C 0,0 UV-I 1,4 C 55 % 82 % 40 % 1005,9 hPa 0,0 l/m 10,0 km/h (2 Bft) 0 min 0 min 28,5 km/h (4 Bft)
12.12.2011 13:20 14,4 C 7,8 C 0,0 UV-I 1,0 C 55 % 82 % 29 % 1005,9 hPa 0,0 l/m 10,4 km/h (2 Bft) 0 min 0 min 28,5 km/h (4 Bft)
12.12.2011 13:22 14,4 C 7,9 C 0,0 UV-I 0,4 C 55 % 82 % 11 % 1005,9 hPa 0,0 l/m 10,4 km/h (2 Bft) 0 min 0 min 12,4 km/h (3 Bft)
12.12.2011 13:24 14,4 C 7,7 C 0,0 UV-I 0,0 C 55 % 81 % 0 % 1006,6 hPa 0,0 l/m 11,6 km/h (2 Bft) 0 min 0 min 18,9 km/h (3 Bft)
12.12.2011 13:26 14,4 C 7,7 C 0,0 UV-I 0,0 C 55 % 80 % 0 % 1006,6 hPa 0,0 l/m 12,0 km/h (2 Bft) 0 min 0 min 18,9 km/h (3 Bft)
12.12.2011 13:28 14,4 C 7,7 C 0,0 UV-I 0,0 C 54 % 81 % 0 % 1006,6 hPa 0,0 l/m 11,6 km/h (2 Bft) 0 min 0 min 18,9 km/h (3 Bft)
12.12.2011 13:30 14,4 C 7,6 C 0,0 UV-I 0,0 C 54 % 80 % 0 % 1006,6 hPa 0,0 l/m 10,0 km/h (2 Bft) 0 min 0 min 18,5 km/h (3 Bft)
12.12.2011 13:32 14,4 C 7,6 C 0,0 UV-I 0,0 C 54 % 78 % 0 % 1006,6 hPa 0,0 l/m 10,4 km/h (2 Bft) 0 min 0 min 18,5 km/h (3 Bft)
12.12.2011 13:34 14,4 C 7,5 C 0,0 UV-I 0,0 C 54 % 78 % 0 % 1006,6 hPa 0,0 l/m 10,0 km/h (2 Bft) 0 min 0 min 11,2 km/h (2 Bft)
12.12.2011 13:36 14,4 C 7,5 C 0,0 UV-I 0,0 C 54 % 77 % 0 % 1006,6 hPa 0,0 l/m 10,0 km/h (2 Bft) 0 min 0 min 11,2 km/h (2 Bft)
12.12.2011 13:38 14,4 C 7,5 C 0,0 UV-I 0,0 C 54 % 77 % 0 % 1006,6 hPa 0,0 l/m 10,0 km/h (2 Bft) 0 min 0 min 11,6 km/h (2 Bft)
12.12.2011 13:40 14,4 C 7,4 C 0,0 UV-I 0,0 C 54 % 78 % 0 % 1006,6 hPa 0,0 l/m 11,2 km/h (2 Bft) 0 min 0 min 18,1 km/h (3 Bft)
12.12.2011 13:42 14,4 C 7,5 C 0,1 UV-I 0,0 C 54 % 77 % 0 % 1006,6 hPa 0,0 l/m 12,0 km/h (2 Bft) 0 min 0 min 18,1 km/h (3 Bft)
12.12.2011 13:44 14,4 C 7,5 C 0,1 UV-I 0,0 C 54 % 76 % 0 % 1006,9 hPa 0,0 l/m 12,0 km/h (2 Bft) 0 min 0 min 11,2 km/h (2 Bft)
12.12.2011 13:46 14,4 C 7,5 C 0,1 UV-I 0,0 C 54 % 76 % 0 % 1006,9 hPa 0,0 l/m 12,0 km/h (2 Bft) 0 min 0 min 16,1 km/h (3 Bft)
12.12.2011 13:48 14,3 C 7,6 C 0,1 UV-I 0,1 C 54 % 76 % 3 % 1006,9 hPa 0,0 l/m 12,0 km/h (2 Bft) 0 min 0 min 16,1 km/h (3 Bft)
12.12.2011 13:50 14,5 C 7,7 C 0,1 UV-I 0,6 C 54 % 76 % 17 % 1006,9 hPa 0,0 l/m 11,2 km/h (2 Bft) 0 min 0 min 14,9 km/h (3 Bft)
12.12.2011 13:52 14,4 C 7,9 C 0,1 UV-I 1,3 C 54 % 77 % 37 % 1006,9 hPa 0,0 l/m 9,6 km/h (2 Bft) 0 min 0 min 8,0 km/h (2 Bft)
12.12.2011 13:54 14,6 C 7,9 C 0,1 UV-I 2,0 C 53 % 76 % 57 % 1006,9 hPa 0,0 l/m 9,2 km/h (2 Bft) 2 min 0 min 12,8 km/h (3 Bft)
12.12.2011 13:56 14,6 C 7,9 C 0,1 UV-I 2,2 C 53 % 76 % 63 % 1006,9 hPa 0,0 l/m 8,8 km/h (2 Bft) 2 min 0 min 12,8 km/h (3 Bft)
12.12.2011 13:58 14,7 C 8,0 C 0,1 UV-I 2,5 C 53 % 76 % 71 % 1006,9 hPa 0,0 l/m 7,6 km/h (2 Bft) 2 min 0 min 10,8 km/h (2 Bft)
12.12.2011 14:00 14,6 C 8,0 C 0,1 UV-I 2,7 C 53 % 76 % 77 % 1006,9 hPa 0,0 l/m 8,0 km/h (2 Bft) 2 min 0 min 12,4 km/h (3 Bft)
12.12.2011 14:02 14,8 C 8,0 C 0,1 UV-I 2,8 C 53 % 76 % 80 % 1006,9 hPa 0,0 l/m 8,4 km/h (2 Bft) 2 min 0 min 12,4 km/h (3 Bft)
12.12.2011 14:04 14,8 C 8,0 C 0,1 UV-I 2,8 C 53 % 76 % 80 % 1007,6 hPa 0,0 l/m 8,8 km/h (2 Bft) 2 min 0 min 13,7 km/h (3 Bft)
12.12.2011 14:06 14,8 C 8,0 C 0,1 UV-I 2,5 C 52 % 76 % 71 % 1007,6 hPa 0,0 l/m 8,8 km/h (2 Bft) 2 min 0 min 13,7 km/h (3 Bft)
12.12.2011 14:08 14,8 C 8,0 C 0,1 UV-I 2,4 C 52 % 75 % 69 % 1007,6 hPa 0,0 l/m 10,0 km/h (2 Bft) 2 min 0 min 11,2 km/h (2 Bft)
12.12.2011 14:10 14,8 C 8,1 C 0,1 UV-I 2,1 C 52 % 76 % 60 % 1007,6 hPa 0,0 l/m 10,0 km/h (2 Bft) 2 min 0 min 24,1 km/h (4 Bft)
12.12.2011 14:12 14,8 C 7,9 C 0,1 UV-I 1,9 C 52 % 76 % 54 % 1007,6 hPa 0,0 l/m 10,4 km/h (2 Bft) 2 min 0 min 24,1 km/h (4 Bft)
12.12.2011 14:14 14,8 C 7,8 C 0,1 UV-I 1,3 C 52 % 76 % 37 % 1007,6 hPa 0,0 l/m 10,8 km/h (2 Bft) 0 min 0 min 14,9 km/h (3 Bft)
12.12.2011 14:16 14,8 C 7,8 C 0,1 UV-I 0,7 C 52 % 76 % 20 % 1007,6 hPa 0,0 l/m 10,8 km/h (2 Bft) 0 min 0 min 17,7 km/h (3 Bft)
12.12.2011 14:18 14,8 C 7,7 C 0,0 UV-I 0,6 C 52 % 76 % 17 % 1007,6 hPa 0,0 l/m 10,0 km/h (2 Bft) 0 min 0 min 22,1 km/h (4 Bft)
12.12.2011 14:20 14,8 C 7,7 C 0,0 UV-I 0,6 C 52 % 76 % 17 % 1007,6 hPa 0,0 l/m 9,6 km/h (2 Bft) 0 min 0 min 22,1 km/h (4 Bft)
12.12.2011 14:22 14,8 C 7,6 C 0,0 UV-I 1,0 C 52 % 76 % 29 % 1007,6 hPa 0,0 l/m 10,4 km/h (2 Bft) 0 min 0 min 13,3 km/h (3 Bft)
12.12.2011 14:24 15,0 C 7,7 C 0,0 UV-I 1,4 C 52 % 76 % 40 % 1007,8 hPa 0,0 l/m 10,0 km/h (2 Bft) 0 min 0 min 13,3 km/h (3 Bft)
12.12.2011 14:26 15,0 C 7,7 C 0,0 UV-I 2,0 C 52 % 76 % 57 % 1007,8 hPa 0,0 l/m 10,0 km/h (2 Bft) 2 min 0 min 20,9 km/h (4 Bft)
12.12.2011 14:28 14,9 C 7,7 C 0,0 UV-I 2,2 C 52 % 76 % 63 % 1007,8 hPa 0,0 l/m 10,0 km/h (2 Bft) 2 min 0 min 20,9 km/h (4 Bft)
12.12.2011 14:30 15,1 C 7,8 C 0,0 UV-I 2,3 C 51 % 76 % 66 % 1007,8 hPa 0,0 l/m 8,8 km/h (2 Bft) 2 min 0 min 12,8 km/h (3 Bft)
12.12.2011 14:32 15,1 C 7,7 C 0,0 UV-I 2,4 C 51 % 76 % 69 % 1007,8 hPa 0,0 l/m 8,4 km/h (2 Bft) 2 min 0 min 19,7 km/h (3 Bft)
12.12.2011 14:34 15,2 C 7,8 C 0,0 UV-I 2,1 C 51 % 76 % 60 % 1007,8 hPa 0,0 l/m 8,4 km/h (2 Bft) 2 min 0 min 19,7 km/h (3 Bft)
12.12.2011 14:36 15,2 C 7,7 C 0,0 UV-I 1,8 C 51 % 76 % 51 % 1007,8 hPa 0,0 l/m 8,8 km/h (2 Bft) 2 min 0 min 12,8 km/h (3 Bft)
12.12.2011 14:38 15,2 C 7,7 C 0,0 UV-I 1,6 C 50 % 76 % 46 % 1007,8 hPa 0,0 l/m 8,0 km/h (2 Bft) 2 min 0 min 15,7 km/h (3 Bft)
12.12.2011 14:40 15,2 C 7,7 C 0,0 UV-I 1,5 C 50 % 76 % 43 % 1007,8 hPa 0,0 l/m 8,4 km/h (2 Bft) 0 min 0 min 15,7 km/h (3 Bft)
12.12.2011 14:42 15,2 C 7,7 C 0,0 UV-I 1,6 C 50 % 76 % 46 % 1007,8 hPa 0,0 l/m 8,8 km/h (2 Bft) 2 min 0 min 16,1 km/h (3 Bft)
12.12.2011 14:44 15,2 C 7,7 C 0,0 UV-I 1,7 C 50 % 76 % 49 % 1007,8 hPa 0,0 l/m 8,0 km/h (2 Bft) 2 min 0 min 16,1 km/h (3 Bft)
12.12.2011 14:46 15,2 C 7,7 C 0,0 UV-I 1,6 C 50 % 76 % 46 % 1007,8 hPa 0,0 l/m 8,0 km/h (2 Bft) 2 min 0 min 13,7 km/h (3 Bft)
12.12.2011 14:48 15,2 C 7,8 C 0,0 UV-I 1,3 C 50 % 76 % 37 % 1007,8 hPa 0,0 l/m 7,6 km/h (2 Bft) 0 min 0 min 13,7 km/h (3 Bft)
12.12.2011 14:50 15,2 C 7,9 C 0,0 UV-I 1,1 C 50 % 76 % 31 % 1007,8 hPa 0,0 l/m 7,2 km/h (2 Bft) 0 min 0 min 10,8 km/h (2 Bft)
12.12.2011 14:52 15,2 C 7,9 C 0,0 UV-I 0,8 C 50 % 75 % 23 % 1007,8 hPa 0,0 l/m 7,6 km/h (2 Bft) 0 min 0 min 22,1 km/h (4 Bft)
12.12.2011 14:54 15,2 C 7,9 C 0,0 UV-I 0,7 C 50 % 75 % 20 % 1007,8 hPa 0,0 l/m 8,0 km/h (2 Bft) 0 min 0 min 22,1 km/h (4 Bft)
12.12.2011 14:56 15,2 C 7,9 C 0,0 UV-I 0,5 C 50 % 75 % 14 % 1007,8 hPa 0,0 l/m 9,2 km/h (2 Bft) 0 min 0 min 21,3 km/h (4 Bft)
12.12.2011 14:58 15,2 C 7,9 C 0,0 UV-I 0,2 C 50 % 74 % 6 % 1007,8 hPa 0,0 l/m 10,0 km/h (2 Bft) 0 min 0 min 21,3 km/h (4 Bft)
12.12.2011 15:00 15,2 C 7,9 C 0,0 UV-I 0,0 C 50 % 74 % 0 % 1007,8 hPa 0,0 l/m 11,2 km/h (2 Bft) 0 min 0 min 16,1 km/h (3 Bft)
12.12.2011 15:02 15,2 C 7,9 C 0,0 UV-I 0,0 C 49 % 74 % 0 % 1007,8 hPa 0,0 l/m 11,6 km/h (2 Bft) 0 min 0 min 16,1 km/h (3 Bft)
12.12.2011 15:04 15,2 C 7,9 C 0,0 UV-I 0,0 C 49 % 73 % 0 % 1008,2 hPa 0,0 l/m 11,2 km/h (2 Bft) 0 min 0 min 10,0 km/h (2 Bft)
12.12.2011 15:06 15,2 C 7,7 C 0,0 UV-I 0,0 C 49 % 73 % 0 % 1008,2 hPa 0,0 l/m 11,2 km/h (2 Bft) 0 min 0 min 10,0 km/h (2 Bft)
12.12.2011 15:08 15,2 C 7,7 C 0,0 UV-I 0,0 C 49 % 73 % 0 % 1008,2 hPa 0,0 l/m 10,0 km/h (2 Bft) 0 min 0 min 8,4 km/h (2 Bft)
12.12.2011 15:10 15,1 C 7,7 C 0,0 UV-I 0,0 C 49 % 74 % 0 % 1008,2 hPa 0,0 l/m 9,2 km/h (2 Bft) 0 min 0 min 12,8 km/h (3 Bft)
12.12.2011 15:12 15,1 C 7,7 C 0,0 UV-I 0,0 C 49 % 74 % 0 % 1008,2 hPa 0,0 l/m 8,4 km/h (2 Bft) 0 min 0 min 12,8 km/h (3 Bft)
12.12.2011 15:14 15,1 C 7,6 C 0,0 UV-I 0,0 C 49 % 74 % 0 % 1008,2 hPa 0,0 l/m 8,4 km/h (2 Bft) 0 min 0 min 13,3 km/h (3 Bft)
12.12.2011 15:16 15,1 C 7,6 C 0,0 UV-I 0,0 C 49 % 74 % 0 % 1008,2 hPa 0,0 l/m 8,0 km/h (2 Bft) 0 min 0 min 18,9 km/h (3 Bft)
12.12.2011 15:18 15,1 C 7,7 C 0,0 UV-I 0,0 C 49 % 74 % 0 % 1008,2 hPa 0,0 l/m 8,4 km/h (2 Bft) 0 min 0 min 18,9 km/h (3 Bft)
12.12.2011 15:20 15,1 C 7,6 C 0,0 UV-I 0,0 C 49 % 74 % 0 % 1008,2 hPa 0,0 l/m 9,2 km/h (2 Bft) 0 min 0 min 12,8 km/h (3 Bft)
12.12.2011 15:22 14,9 C 7,6 C 0,0 UV-I 0,0 C 49 % 74 % 0 % 1008,2 hPa 0,0 l/m 9,6 km/h (2 Bft) 0 min 0 min 16,1 km/h (3 Bft)
12.12.2011 15:24 14,9 C 7,6 C 0,0 UV-I 0,0 C 49 % 74 % 0 % 1008,2 hPa 0,0 l/m 9,6 km/h (2 Bft) 0 min 0 min 16,1 km/h (3 Bft)
12.12.2011 15:26 15,0 C 7,5 C 0,0 UV-I 0,0 C 49 % 74 % 0 % 1008,2 hPa 0,0 l/m 9,6 km/h (2 Bft) 0 min 0 min 13,7 km/h (3 Bft)
12.12.2011 15:28 15,0 C 7,5 C 0,0 UV-I 0,0 C 49 % 74 % 0 % 1008,2 hPa 0,0 l/m 9,6 km/h (2 Bft) 0 min 0 min 17,7 km/h (3 Bft)
12.12.2011 15:30 15,0 C 7,5 C 0,0 UV-I 0,0 C 49 % 74 % 0 % 1008,2 hPa 0,0 l/m 8,4 km/h (2 Bft) 0 min 0 min 17,7 km/h (3 Bft)
12.12.2011 15:32 15,0 C 7,4 C 0,0 UV-I 0,0 C 49 % 74 % 0 % 1008,2 hPa 0,0 l/m 7,6 km/h (2 Bft) 0 min 0 min 10,0 km/h (2 Bft)
12.12.2011 15:34 15,0 C 7,4 C 0,0 UV-I 0,0 C 49 % 74 % 0 % 1008,2 hPa 0,0 l/m 7,2 km/h (2 Bft) 0 min 0 min 10,0 km/h (2 Bft)
12.12.2011 15:36 15,0 C 7,5 C 0,0 UV-I 0,0 C 49 % 74 % 0 % 1008,2 hPa 0,0 l/m 7,6 km/h (2 Bft) 0 min 0 min 15,3 km/h (3 Bft)
12.12.2011 15:38 15,0 C 7,5 C 0,0 UV-I 0,0 C 49 % 73 % 0 % 1008,2 hPa 0,0 l/m 8,0 km/h (2 Bft) 0 min 0 min 15,3 km/h (3 Bft)
12.12.2011 15:40 14,8 C 7,5 C 0,0 UV-I 0,0 C 49 % 74 % 0 % 1008,2 hPa 0,0 l/m 7,2 km/h (2 Bft) 0 min 0 min 10,8 km/h (2 Bft)
12.12.2011 15:42 14,8 C 7,3 C 0,0 UV-I 0,0 C 49 % 73 % 0 % 1008,2 hPa 0,0 l/m 7,6 km/h (2 Bft) 0 min 0 min 10,8 km/h (2 Bft)
12.12.2011 15:44 14,8 C 7,4 C 0,0 UV-I 0,0 C 49 % 74 % 0 % 1008,2 hPa 0,0 l/m 6,4 km/h (2 Bft) 0 min 0 min 10,8 km/h (2 Bft)
12.12.2011 15:46 14,9 C 7,3 C 0,0 UV-I 0,0 C 49 % 74 % 0 % 1008,2 hPa 0,0 l/m 6,0 km/h (2 Bft) 0 min 0 min 14,9 km/h (3 Bft)
12.12.2011 15:48 14,8 C 7,2 C 0,0 UV-I 0,0 C 49 % 73 % 0 % 1008,2 hPa 0,0 l/m 5,2 km/h (1 Bft) 0 min 0 min 14,9 km/h (3 Bft)
12.12.2011 15:50 14,8 C 7,2 C 0,0 UV-I 0,0 C 49 % 73 % 0 % 1008,2 hPa 0,0 l/m 4,8 km/h (1 Bft) 0 min 0 min 10,8 km/h (2 Bft)
12.12.2011 15:52 14,8 C 7,3 C 0,0 UV-I 0,0 C 49 % 74 % 0 % 1008,2 hPa 0,0 l/m 5,2 km/h (1 Bft) 0 min 0 min 8,8 km/h (2 Bft)
12.12.2011 15:54 14,8 C 7,2 C 0,0 UV-I 0,0 C 49 % 73 % 0 % 1008,2 hPa 0,0 l/m 5,6 km/h (1 Bft) 0 min 0 min 8,8 km/h (2 Bft)
12.12.2011 15:56 14,8 C 7,2 C 0,0 UV-I 0,0 C 49 % 74 % 0 % 1008,2 hPa 0,0 l/m 6,4 km/h (2 Bft) 0 min 0 min 5,2 km/h (1 Bft)
12.12.2011 15:58 14,8 C 7,1 C 0,0 UV-I 0,0 C 49 % 74 % 0 % 1008,2 hPa 0,0 l/m 6,0 km/h (2 Bft) 0 min 0 min 6,4 km/h (2 Bft)
12.12.2011 16:00 14,8 C 7,1 C 0,0 UV-I 0,0 C 49 % 74 % 0 % 1008,2 hPa 0,0 l/m 5,6 km/h (1 Bft) 0 min 0 min 6,4 km/h (2 Bft)
12.12.2011 16:02 14,8 C 7,1 C 0,0 UV-I 0,0 C 49 % 74 % 0 % 1008,2 hPa 0,0 l/m 6,0 km/h (2 Bft) 0 min 0 min 7,6 km/h (2 Bft)
12.12.2011 16:04 14,6 C 7,1 C 0,0 UV-I 0,0 C 49 % 74 % 0 % 1008,4 hPa 0,0 l/m 6,0 km/h (2 Bft) 0 min 0 min 8,4 km/h (2 Bft)
12.12.2011 16:06 14,6 C 7,1 C 0,0 UV-I 0,0 C 49 % 74 % 0 % 1008,4 hPa 0,0 l/m 5,6 km/h (1 Bft) 0 min 0 min 8,4 km/h (2 Bft)
12.12.2011 16:08 14,6 C 7,0 C 0,0 UV-I 0,0 C 49 % 74 % 0 % 1008,4 hPa 0,0 l/m 5,2 km/h (1 Bft) 0 min 0 min 8,0 km/h (2 Bft)
12.12.2011 16:10 14,7 C 6,9 C 0,0 UV-I 0,0 C 49 % 74 % 0 % 1008,4 hPa 0,0 l/m 5,6 km/h (1 Bft) 0 min 0 min 16,1 km/h (3 Bft)
12.12.2011 16:12 14,7 C 6,9 C 0,0 UV-I 0,0 C 49 % 74 % 0 % 1008,4 hPa 0,0 l/m 5,2 km/h (1 Bft) 0 min 0 min 16,1 km/h (3 Bft)
12.12.2011 16:14 14,7 C 6,8 C 0,0 UV-I 0,0 C 49 % 75 % 0 % 1008,4 hPa 0,0 l/m 5,2 km/h (1 Bft) 0 min 0 min 7,6 km/h (2 Bft)
12.12.2011 16:16 14,7 C 6,9 C 0,0 UV-I 0,0 C 49 % 75 % 0 % 1008,4 hPa 0,0 l/m 4,8 km/h (1 Bft) 0 min 0 min 5,2 km/h (1 Bft)
12.12.2011 16:18 14,6 C 6,9 C 0,0 UV-I 0,0 C 49 % 75 % 0 % 1008,4 hPa 0,0 l/m 5,2 km/h (1 Bft) 0 min 0 min 5,2 km/h (1 Bft)
12.12.2011 16:20 14,6 C 6,8 C 0,0 UV-I 0,0 C 49 % 75 % 0 % 1008,4 hPa 0,0 l/m 5,2 km/h (1 Bft) 0 min 0 min 7,6 km/h (2 Bft)
12.12.2011 16:22 14,6 C 6,9 C 0,0 UV-I 0,0 C 49 % 75 % 0 % 1008,4 hPa 0,0 l/m 6,0 km/h (2 Bft) 0 min 0 min 14,1 km/h (3 Bft)
12.12.2011 16:24 14,6 C 6,9 C 0,0 UV-I 0,0 C 49 % 75 % 0 % 1008,6 hPa 0,0 l/m 5,6 km/h (1 Bft) 0 min 0 min 14,1 km/h (3 Bft)
12.12.2011 16:26 14,6 C 6,9 C 0,0 UV-I 0,0 C 49 % 75 % 0 % 1008,6 hPa 0,0 l/m 6,4 km/h (2 Bft) 0 min 0 min 10,8 km/h (2 Bft)
12.12.2011 16:28 14,6 C 7,0 C 0,0 UV-I 0,0 C 49 % 75 % 0 % 1008,6 hPa 0,0 l/m 6,8 km/h (2 Bft) 0 min 0 min 10,8 km/h (2 Bft)
12.12.2011 16:30 14,4 C 7,0 C 0,0 UV-I 0,0 C 49 % 75 % 0 % 1008,6 hPa 0,0 l/m 6,4 km/h (2 Bft) 0 min 0 min 10,8 km/h (2 Bft)
12.12.2011 16:32 14,4 C 7,1 C 0,0 UV-I 0,0 C 49 % 75 % 0 % 1008,6 hPa 0,0 l/m 6,0 km/h (2 Bft) 0 min 0 min 6,8 km/h (2 Bft)
12.12.2011 16:34 14,4 C 7,1 C 0,0 UV-I 0,0 C 49 % 75 % 0 % 1008,6 hPa 0,0 l/m 5,6 km/h (1 Bft) 0 min 0 min 11,2 km/h (2 Bft)
12.12.2011 16:36 14,5 C 7,1 C 0,0 UV-I 0,0 C 49 % 75 % 0 % 1008,6 hPa 0,0 l/m 6,0 km/h (2 Bft) 0 min 0 min 11,2 km/h (2 Bft)
12.12.2011 16:38 14,5 C 7,0 C 0,0 UV-I 0,0 C 49 % 75 % 0 % 1008,6 hPa 0,0 l/m 5,2 km/h (1 Bft) 0 min 0 min 7,2 km/h (2 Bft)
12.12.2011 16:40 14,3 C 7,0 C 0,0 UV-I 0,0 C 49 % 74 % 0 % 1008,6 hPa 0,0 l/m 5,6 km/h (1 Bft) 0 min 0 min 9,6 km/h (2 Bft)
12.12.2011 16:42 14,3 C 7,1 C 0,0 UV-I 0,0 C 49 % 75 % 0 % 1008,6 hPa 0,0 l/m 5,2 km/h (1 Bft) 0 min 0 min 9,6 km/h (2 Bft)
12.12.2011 16:44 14,3 C 7,0 C 0,0 UV-I 0,0 C 49 % 74 % 0 % 1008,9 hPa 0,0 l/m 5,2 km/h (1 Bft) 0 min 0 min 13,3 km/h (3 Bft)
12.12.2011 16:46 14,4 C 7,0 C 0,0 UV-I 0,0 C 49 % 75 % 0 % 1008,9 hPa 0,0 l/m 4,8 km/h (1 Bft) 0 min 0 min 16,9 km/h (3 Bft)
12.12.2011 16:48 14,3 C 7,0 C 0,0 UV-I 0,0 C 49 % 74 % 0 % 1008,9 hPa 0,0 l/m 4,8 km/h (1 Bft) 0 min 0 min 16,9 km/h (3 Bft)
12.12.2011 16:50 14,4 C 7,0 C 0,0 UV-I 0,0 C 49 % 74 % 0 % 1008,9 hPa 0,0 l/m 4,8 km/h (1 Bft) 0 min 0 min 6,8 km/h (2 Bft)
12.12.2011 16:52 14,4 C 7,0 C 0,0 UV-I 0,0 C 49 % 74 % 0 % 1008,9 hPa 0,0 l/m 5,6 km/h (1 Bft) 0 min 0 min 21,7 km/h (4 Bft)
12.12.2011 16:54 14,4 C 7,0 C 0,0 UV-I 0,0 C 49 % 74 % 0 % 1008,9 hPa 0,0 l/m 6,4 km/h (2 Bft) 0 min 0 min 21,7 km/h (4 Bft)
12.12.2011 16:56 14,4 C 7,0 C 0,0 UV-I 0,0 C 49 % 75 % 0 % 1008,9 hPa 0,0 l/m 6,4 km/h (2 Bft) 0 min 0 min 7,6 km/h (2 Bft)
12.12.2011 16:58 14,4 C 7,0 C 0,0 UV-I 0,0 C 49 % 74 % 0 % 1008,9 hPa 0,0 l/m 7,2 km/h (2 Bft) 0 min 0 min 11,6 km/h (2 Bft)
12.12.2011 17:00 14,4 C 7,1 C 0,0 UV-I 0,0 C 49 % 75 % 0 % 1008,9 hPa 0,0 l/m 7,6 km/h (2 Bft) 0 min 0 min 17,7 km/h (3 Bft)
12.12.2011 17:02 14,2 C 7,1 C 0,0 UV-I 0,0 C 49 % 74 % 0 % 1008,9 hPa 0,0 l/m 7,6 km/h (2 Bft) 0 min 0 min 17,7 km/h (3 Bft)
12.12.2011 17:04 14,3 C 7,1 C 0,0 UV-I 0,0 C 49 % 75 % 0 % 1009,0 hPa 0,0 l/m 7,2 km/h (2 Bft) 0 min 0 min 14,9 km/h (3 Bft)
12.12.2011 17:06 14,3 C 7,1 C 0,0 UV-I 0,0 C 49 % 75 % 0 % 1009,0 hPa 0,0 l/m 6,4 km/h (2 Bft) 0 min 0 min 14,9 km/h (3 Bft)
12.12.2011 17:08 14,2 C 7,1 C 0,0 UV-I 0,0 C 49 % 75 % 0 % 1009,0 hPa 0,0 l/m 6,4 km/h (2 Bft) 0 min 0 min 16,5 km/h (3 Bft)
12.12.2011 17:10 14,3 C 7,1 C 0,0 UV-I 0,0 C 49 % 75 % 0 % 1009,0 hPa 0,0 l/m 6,4 km/h (2 Bft) 0 min 0 min 16,5 km/h (3 Bft)
12.12.2011 17:12 14,3 C 7,1 C 0,0 UV-I 0,0 C 49 % 75 % 0 % 1009,0 hPa 0,0 l/m 6,0 km/h (2 Bft) 0 min 0 min 7,2 km/h (2 Bft)
12.12.2011 17:14 14,3 C 7,1 C 0,0 UV-I 0,0 C 49 % 75 % 0 % 1009,0 hPa 0,0 l/m 6,4 km/h (2 Bft) 0 min 0 min 5,2 km/h (1 Bft)
12.12.2011 17:16 14,3 C 7,2 C 0,0 UV-I 0,0 C 49 % 75 % 0 % 1009,0 hPa 0,0 l/m 6,8 km/h (2 Bft) 0 min 0 min 4,8 km/h (1 Bft)
12.12.2011 17:18 14,1 C 7,1 C 0,0 UV-I 0,0 C 49 % 75 % 0 % 1009,0 hPa 0,0 l/m 6,8 km/h (2 Bft) 0 min 0 min 8,0 km/h (2 Bft)
12.12.2011 17:20 14,1 C 7,1 C 0,0 UV-I 0,0 C 49 % 75 % 0 % 1009,0 hPa 0,0 l/m 6,0 km/h (2 Bft) 0 min 0 min 8,0 km/h (2 Bft)
12.12.2011 17:22 14,1 C 7,1 C 0,0 UV-I 0,0 C 49 % 75 % 0 % 1009,0 hPa 0,0 l/m 6,0 km/h (2 Bft) 0 min 0 min 8,0 km/h (2 Bft)
12.12.2011 17:24 14,1 C 7,1 C 0,0 UV-I 0,0 C 49 % 75 % 0 % 1009,4 hPa 0,0 l/m 5,6 km/h (1 Bft) 0 min 0 min 8,4 km/h (2 Bft)
12.12.2011 17:26 14,1 C 7,1 C 0,0 UV-I 0,0 C 49 % 75 % 0 % 1009,4 hPa 0,0 l/m 5,6 km/h (1 Bft) 0 min 0 min 17,7 km/h (3 Bft)
12.12.2011 17:28 14,2 C 7,1 C 0,0 UV-I 0,0 C 49 % 75 % 0 % 1009,4 hPa 0,0 l/m 5,2 km/h (1 Bft) 0 min 0 min 17,7 km/h (3 Bft)
12.12.2011 17:30 14,2 C 7,1 C 0,0 UV-I 0,0 C 50 % 75 % 0 % 1009,4 hPa 0,0 l/m 5,6 km/h (1 Bft) 0 min 0 min 10,0 km/h (2 Bft)
12.12.2011 17:32 14,2 C 7,1 C 0,0 UV-I 0,0 C 49 % 75 % 0 % 1009,4 hPa 0,0 l/m 5,6 km/h (1 Bft) 0 min 0 min 16,9 km/h (3 Bft)
12.12.2011 17:34 14,2 C 7,1 C 0,0 UV-I 0,0 C 50 % 75 % 0 % 1009,4 hPa 0,0 l/m 5,6 km/h (1 Bft) 0 min 0 min 16,9 km/h (3 Bft)
12.12.2011 17:36 14,2 C 7,0 C 0,0 UV-I 0,0 C 50 % 75 % 0 % 1009,4 hPa 0,0 l/m 5,6 km/h (1 Bft) 0 min 0 min 6,8 km/h (2 Bft)
12.12.2011 17:38 14,2 C 6,9 C 0,0 UV-I 0,0 C 50 % 75 % 0 % 1009,4 hPa 0,0 l/m 6,0 km/h (2 Bft) 0 min 0 min 13,7 km/h (3 Bft)
12.12.2011 17:40 14,2 C 6,9 C 0,0 UV-I 0,0 C 50 % 75 % 0 % 1009,4 hPa 0,0 l/m 6,4 km/h (2 Bft) 0 min 0 min 13,7 km/h (3 Bft)
12.12.2011 17:42 14,2 C 6,9 C 0,0 UV-I 0,0 C 50 % 75 % 0 % 1009,4 hPa 0,0 l/m 7,2 km/h (2 Bft) 0 min 0 min 11,2 km/h (2 Bft)
12.12.2011 17:44 14,2 C 6,9 C 0,0 UV-I 0,0 C 50 % 75 % 0 % 1009,3 hPa 0,0 l/m 6,8 km/h (2 Bft) 0 min 0 min 18,1 km/h (3 Bft)
12.12.2011 17:46 14,2 C 6,9 C 0,0 UV-I 0,0 C 50 % 76 % 0 % 1009,3 hPa 0,0 l/m 8,0 km/h (2 Bft) 0 min 0 min 18,1 km/h (3 Bft)
12.12.2011 17:48 14,1 C 6,9 C 0,0 UV-I 0,0 C 50 % 76 % 0 % 1009,3 hPa 0,0 l/m 9,6 km/h (2 Bft) 0 min 0 min 24,5 km/h (4 Bft)
12.12.2011 17:50 14,1 C 6,9 C 0,0 UV-I 0,0 C 50 % 76 % 0 % 1009,3 hPa 0,0 l/m 9,2 km/h (2 Bft) 0 min 0 min 27,7 km/h (4 Bft)
12.12.2011 17:52 14,1 C 6,9 C 0,0 UV-I 0,0 C 50 % 76 % 0 % 1009,3 hPa 0,0 l/m 8,8 km/h (2 Bft) 0 min 0 min 27,7 km/h (4 Bft)
12.12.2011 17:54 14,1 C 6,9 C 0,0 UV-I 0,0 C 50 % 76 % 0 % 1009,3 hPa 0,0 l/m 10,0 km/h (2 Bft) 0 min 0 min 9,6 km/h (2 Bft)
12.12.2011 17:56 14,1 C 6,9 C 0,0 UV-I 0,0 C 50 % 76 % 0 % 1009,3 hPa 0,0 l/m 8,8 km/h (2 Bft) 0 min 0 min 6,8 km/h (2 Bft)
12.12.2011 17:58 14,1 C 6,9 C 0,0 UV-I 0,0 C 50 % 76 % 0 % 1009,3 hPa 0,0 l/m 8,4 km/h (2 Bft) 0 min 0 min 8,0 km/h (2 Bft)
12.12.2011 18:00 14,1 C 6,9 C 0,0 UV-I 0,0 C 50 % 77 % 0 % 1009,3 hPa 0,0 l/m 8,4 km/h (2 Bft) 0 min 0 min 19,7 km/h (3 Bft)
12.12.2011 18:02 14,1 C 6,8 C 0,0 UV-I 0,0 C 50 % 77 % 0 % 1009,3 hPa 0,0 l/m 9,6 km/h (2 Bft) 0 min 0 min 19,7 km/h (3 Bft)
12.12.2011 18:04 14,1 C 6,8 C 0,0 UV-I 0,0 C 50 % 77 % 0 % 1009,5 hPa 0,0 l/m 9,6 km/h (2 Bft) 0 min 0 min 8,4 km/h (2 Bft)
12.12.2011 18:06 13,9 C 6,8 C 0,0 UV-I 0,0 C 50 % 77 % 0 % 1009,5 hPa 0,0 l/m 10,4 km/h (2 Bft) 0 min 0 min 14,9 km/h (3 Bft)
12.12.2011 18:08 13,9 C 6,8 C 0,0 UV-I 0,0 C 50 % 77 % 0 % 1009,5 hPa 0,0 l/m 10,8 km/h (2 Bft) 0 min 0 min 19,7 km/h (3 Bft)
12.12.2011 18:10 13,9 C 6,8 C 0,0 UV-I 0,0 C 50 % 78 % 0 % 1009,5 hPa 0,0 l/m 12,0 km/h (2 Bft) 0 min 0 min 19,7 km/h (3 Bft)
12.12.2011 18:12 13,9 C 6,8 C 0,0 UV-I 0,0 C 50 % 78 % 0 % 1009,5 hPa 0,0 l/m 11,6 km/h (2 Bft) 0 min 0 min 19,3 km/h (3 Bft)
12.12.2011 18:14 13,9 C 6,8 C 0,0 UV-I 0,0 C 50 % 78 % 0 % 1009,5 hPa 0,0 l/m 10,0 km/h (2 Bft) 0 min 0 min 18,5 km/h (3 Bft)
12.12.2011 18:16 13,9 C 6,8 C 0,0 UV-I 0,0 C 50 % 78 % 0 % 1009,5 hPa 0,0 l/m 11,2 km/h (2 Bft) 0 min 0 min 12,4 km/h (3 Bft)
12.12.2011 18:18 13,9 C 6,8 C 0,0 UV-I 0,0 C 50 % 79 % 0 % 1009,5 hPa 0,0 l/m 10,4 km/h (2 Bft) 0 min 0 min 15,7 km/h (3 Bft)
12.12.2011 18:20 14,0 C 6,9 C 0,0 UV-I 0,0 C 50 % 79 % 0 % 1009,5 hPa 0,0 l/m 10,4 km/h (2 Bft) 0 min 0 min 15,7 km/h (3 Bft)
12.12.2011 18:22 14,0 C 6,8 C 0,0 UV-I 0,0 C 50 % 79 % 0 % 1009,5 hPa 0,0 l/m 10,4 km/h (2 Bft) 0 min 0 min 13,3 km/h (3 Bft)
12.12.2011 18:24 14,0 C 6,8 C 0,0 UV-I 0,0 C 50 % 79 % 0 % 1009,6 hPa 0,0 l/m 10,4 km/h (2 Bft) 0 min 0 min 15,7 km/h (3 Bft)
12.12.2011 18:26 14,0 C 6,8 C 0,0 UV-I 0,0 C 50 % 79 % 0 % 1009,6 hPa 0,0 l/m 10,0 km/h (2 Bft) 0 min 0 min 15,7 km/h (3 Bft)
12.12.2011 18:28 14,0 C 6,8 C 0,0 UV-I 0,0 C 50 % 79 % 0 % 1009,6 hPa 0,0 l/m 9,6 km/h (2 Bft) 0 min 0 min 14,1 km/h (3 Bft)
12.12.2011 18:30 14,0 C 6,7 C 0,0 UV-I 0,0 C 50 % 79 % 0 % 1009,6 hPa 0,0 l/m 9,6 km/h (2 Bft) 0 min 0 min 12,0 km/h (2 Bft)
12.12.2011 18:32 14,0 C 6,7 C 0,0 UV-I 0,0 C 51 % 79 % 0 % 1009,6 hPa 0,0 l/m 8,8 km/h (2 Bft) 0 min 0 min 10,0 km/h (2 Bft)
12.12.2011 18:34 14,0 C 6,7 C 0,0 UV-I 0,0 C 50 % 79 % 0 % 1009,6 hPa 0,0 l/m 7,6 km/h (2 Bft) 0 min 0 min 9,6 km/h (2 Bft)
12.12.2011 18:36 13,8 C 6,7 C 0,0 UV-I 0,0 C 51 % 79 % 0 % 1009,6 hPa 0,0 l/m 8,0 km/h (2 Bft) 0 min 0 min 12,0 km/h (2 Bft)
12.12.2011 18:38 13,8 C 6,6 C 0,0 UV-I 0,0 C 51 % 79 % 0 % 1009,6 hPa 0,0 l/m 7,2 km/h (2 Bft) 0 min 0 min 12,0 km/h (2 Bft)
12.12.2011 18:40 13,8 C 6,7 C 0,0 UV-I 0,0 C 51 % 79 % 0 % 1009,6 hPa 0,0 l/m 6,4 km/h (2 Bft) 0 min 0 min 8,0 km/h (2 Bft)
12.12.2011 18:42 13,9 C 6,7 C 0,0 UV-I 0,0 C 51 % 79 % 0 % 1009,6 hPa 0,0 l/m 6,4 km/h (2 Bft) 0 min 0 min 8,4 km/h (2 Bft)
12.12.2011 18:44 13,9 C 6,6 C 0,0 UV-I 0,0 C 51 % 79 % 0 % 1009,6 hPa 0,0 l/m 6,8 km/h (2 Bft) 0 min 0 min 8,4 km/h (2 Bft)
12.12.2011 18:46 13,9 C 6,5 C 0,0 UV-I 0,0 C 51 % 79 % 0 % 1009,6 hPa 0,0 l/m 5,6 km/h (1 Bft) 0 min 0 min 4,4 km/h (1 Bft)
12.12.2011 18:48 13,9 C 6,5 C 0,0 UV-I 0,0 C 51 % 80 % 0 % 1009,6 hPa 0,0 l/m 5,6 km/h (1 Bft) 0 min 0 min 16,1 km/h (3 Bft)
12.12.2011 18:50 13,9 C 6,5 C 0,0 UV-I 0,0 C 51 % 80 % 0 % 1009,6 hPa 0,0 l/m 6,0 km/h (2 Bft) 0 min 0 min 16,1 km/h (3 Bft)
12.12.2011 18:52 13,9 C 6,5 C 0,0 UV-I 0,0 C 51 % 80 % 0 % 1009,6 hPa 0,0 l/m 6,0 km/h (2 Bft) 0 min 0 min 11,6 km/h (2 Bft)
12.12.2011 18:54 13,9 C 6,4 C 0,0 UV-I 0,0 C 51 % 80 % 0 % 1009,6 hPa 0,0 l/m 5,6 km/h (1 Bft) 0 min 0 min 8,4 km/h (2 Bft)
12.12.2011 18:56 13,8 C 6,4 C 0,0 UV-I 0,0 C 51 % 80 % 0 % 1009,6 hPa 0,0 l/m 6,4 km/h (2 Bft) 0 min 0 min 8,4 km/h (2 Bft)
12.12.2011 18:58 13,8 C 6,4 C 0,0 UV-I 0,0 C 51 % 80 % 0 % 1009,6 hPa 0,0 l/m 7,2 km/h (2 Bft) 0 min 0 min 17,7 km/h (3 Bft)
12.12.2011 19:00 13,8 C 6,4 C 0,0 UV-I 0,0 C 51 % 80 % 0 % 1009,6 hPa 0,0 l/m 6,4 km/h (2 Bft) 0 min 0 min 17,7 km/h (3 Bft)
12.12.2011 19:02 13,8 C 6,4 C 0,0 UV-I 0,0 C 51 % 80 % 0 % 1009,6 hPa 0,0 l/m 6,8 km/h (2 Bft) 0 min 0 min 9,6 km/h (2 Bft)
12.12.2011 19:06 13,8 C 6,4 C 0,0 UV-I 0,0 C 51 % 81 % 0 % 1009,8 hPa 0,0 l/m 6,8 km/h (2 Bft) 0 min 0 min 16,9 km/h (3 Bft)
12.12.2011 19:08 14,0 C 6,4 C 0,0 UV-I 0,0 C 51 % 81 % 0 % 1009,8 hPa 0,0 l/m 6,8 km/h (2 Bft) 0 min 0 min 16,9 km/h (3 Bft)
12.12.2011 19:10 14,0 C 6,5 C 0,0 UV-I 0,0 C 51 % 81 % 0 % 1009,8 hPa 0,0 l/m 6,4 km/h (2 Bft) 0 min 0 min 9,2 km/h (2 Bft)
12.12.2011 19:12 14,0 C 6,5 C 0,0 UV-I 0,0 C 51 % 81 % 0 % 1009,8 hPa 0,0 l/m 8,0 km/h (2 Bft) 0 min 0 min 9,2 km/h (2 Bft)
12.12.2011 19:14 13,8 C 6,5 C 0,0 UV-I 0,0 C 51 % 81 % 0 % 1009,8 hPa 0,0 l/m 7,2 km/h (2 Bft) 0 min 0 min 9,2 km/h (2 Bft)
12.12.2011 19:16 13,9 C 6,5 C 0,0 UV-I 0,0 C 51 % 81 % 0 % 1009,8 hPa 0,0 l/m 8,0 km/h (2 Bft) 0 min 0 min 8,8 km/h (2 Bft)
12.12.2011 19:18 13,9 C 6,4 C 0,0 UV-I 0,0 C 51 % 82 % 0 % 1009,8 hPa 0,0 l/m 7,6 km/h (2 Bft) 0 min 0 min 10,4 km/h (2 Bft)
12.12.2011 19:20 13,9 C 6,4 C 0,0 UV-I 0,0 C 51 % 81 % 0 % 1009,8 hPa 0,0 l/m 8,4 km/h (2 Bft) 0 min 0 min 13,7 km/h (3 Bft)
12.12.2011 19:22 13,9 C 6,4 C 0,0 UV-I 0,0 C 51 % 82 % 0 % 1009,8 hPa 0,0 l/m 8,0 km/h (2 Bft) 0 min 0 min 13,7 km/h (3 Bft)
12.12.2011 19:24 13,9 C 6,5 C 0,0 UV-I 0,0 C 51 % 82 % 0 % 1010,0 hPa 0,0 l/m 9,2 km/h (2 Bft) 0 min 0 min 12,8 km/h (3 Bft)
12.12.2011 19:26 13,8 C 6,4 C 0,0 UV-I 0,0 C 51 % 82 % 0 % 1010,0 hPa 0,0 l/m 9,6 km/h (2 Bft) 0 min 0 min 12,8 km/h (3 Bft)
12.12.2011 19:28 13,8 C 6,4 C 0,0 UV-I 0,0 C 51 % 82 % 0 % 1010,0 hPa 0,0 l/m 10,0 km/h (2 Bft) 0 min 0 min 15,7 km/h (3 Bft)
12.12.2011 19:30 13,8 C 6,4 C 0,0 UV-I 0,0 C 51 % 82 % 0 % 1010,0 hPa 0,0 l/m 9,6 km/h (2 Bft) 0 min 0 min 15,7 km/h (3 Bft)
12.12.2011 19:32 13,8 C 6,4 C 0,0 UV-I 0,0 C 51 % 82 % 0 % 1010,0 hPa 0,0 l/m 9,6 km/h (2 Bft) 0 min 0 min 13,7 km/h (3 Bft)
12.12.2011 19:34 13,8 C 6,4 C 0,0 UV-I 0,0 C 51 % 82 % 0 % 1010,0 hPa 0,0 l/m 9,6 km/h (2 Bft) 0 min 0 min 20,9 km/h (4 Bft)
12.12.2011 19:36 13,8 C 6,4 C 0,0 UV-I 0,0 C 51 % 82 % 0 % 1010,0 hPa 0,0 l/m 9,6 km/h (2 Bft) 0 min 0 min 22,5 km/h (4 Bft)
12.12.2011 19:38 13,6 C 6,4 C 0,0 UV-I 0,0 C 51 % 82 % 0 % 1010,0 hPa 0,0 l/m 9,2 km/h (2 Bft) 0 min 0 min 22,5 km/h (4 Bft)
12.12.2011 19:40 13,6 C 6,4 C 0,0 UV-I 0,0 C 51 % 82 % 0 % 1010,0 hPa 0,0 l/m 9,6 km/h (2 Bft) 0 min 0 min 18,9 km/h (3 Bft)
12.12.2011 19:42 13,6 C 6,4 C 0,0 UV-I 0,0 C 51 % 82 % 0 % 1010,0 hPa 0,0 l/m 10,0 km/h (2 Bft) 0 min 0 min 18,9 km/h (3 Bft)
12.12.2011 19:44 13,7 C 6,4 C 0,0 UV-I 0,0 C 51 % 82 % 0 % 1010,1 hPa 0,0 l/m 9,6 km/h (2 Bft) 0 min 0 min 8,0 km/h (2 Bft)
12.12.2011 19:46 13,6 C 6,4 C 0,0 UV-I 0,0 C 51 % 82 % 0 % 1010,1 hPa 0,0 l/m 8,8 km/h (2 Bft) 0 min 0 min 7,2 km/h (2 Bft)
12.12.2011 19:48 13,6 C 6,4 C 0,0 UV-I 0,0 C 51 % 82 % 0 % 1010,1 hPa 0,0 l/m 8,8 km/h (2 Bft) 0 min 0 min 9,2 km/h (2 Bft)
12.12.2011 19:50 13,6 C 6,4 C 0,0 UV-I 0,0 C 51 % 82 % 0 % 1010,1 hPa 0,0 l/m 8,8 km/h (2 Bft) 0 min 0 min 13,7 km/h (3 Bft)
12.12.2011 19:52 13,6 C 6,4 C 0,0 UV-I 0,0 C 51 % 82 % 0 % 1010,1 hPa 0,0 l/m 8,8 km/h (2 Bft) 0 min 0 min 15,3 km/h (3 Bft)
12.12.2011 19:54 13,6 C 6,4 C 0,0 UV-I 0,0 C 51 % 82 % 0 % 1010,1 hPa 0,0 l/m 9,2 km/h (2 Bft) 0 min 0 min 16,1 km/h (3 Bft)
12.12.2011 19:56 13,6 C 6,4 C 0,0 UV-I 0,0 C 51 % 82 % 0 % 1010,1 hPa 0,0 l/m 8,8 km/h (2 Bft) 0 min 0 min 16,1 km/h (3 Bft)
12.12.2011 19:58 13,6 C 6,4 C 0,0 UV-I 0,0 C 51 % 82 % 0 % 1010,1 hPa 0,0 l/m 8,8 km/h (2 Bft) 0 min 0 min 10,0 km/h (2 Bft)
12.12.2011 20:00 13,6 C 6,4 C 0,0 UV-I 0,0 C 51 % 82 % 0 % 1010,1 hPa 0,0 l/m 8,8 km/h (2 Bft) 0 min 0 min 12,8 km/h (3 Bft)
12.12.2011 20:02 13,6 C 6,5 C 0,0 UV-I 0,0 C 51 % 82 % 0 % 1010,1 hPa 0,0 l/m 8,4 km/h (2 Bft) 0 min 0 min 12,8 km/h (3 Bft)
12.12.2011 20:06 13,4 C 6,4 C 0,0 UV-I 0,0 C 51 % 82 % 0 % 1009,4 hPa 0,0 l/m 6,8 km/h (2 Bft) 0 min 0 min 10,0 km/h (2 Bft)
12.12.2011 20:08 13,5 C 6,4 C 0,0 UV-I 0,0 C 51 % 82 % 0 % 1009,4 hPa 0,0 l/m 7,2 km/h (2 Bft) 0 min 0 min 20,1 km/h (4 Bft)
12.12.2011 20:10 13,5 C 6,3 C 0,0 UV-I 0,0 C 51 % 82 % 0 % 1009,4 hPa 0,0 l/m 6,4 km/h (2 Bft) 0 min 0 min 20,1 km/h (4 Bft)
12.12.2011 20:12 13,4 C 6,3 C 0,0 UV-I 0,0 C 51 % 82 % 0 % 1009,4 hPa 0,0 l/m 7,2 km/h (2 Bft) 0 min 0 min 42,6 km/h (6 Bft)
12.12.2011 20:14 13,5 C 6,4 C 0,0 UV-I 0,0 C 51 % 82 % 0 % 1009,4 hPa 0,0 l/m 7,6 km/h (2 Bft) 0 min 0 min 21,3 km/h (4 Bft)
12.12.2011 20:16 13,4 C 6,4 C 0,0 UV-I 0,0 C 51 % 82 % 0 % 1009,4 hPa 0,0 l/m 8,4 km/h (2 Bft) 0 min 0 min 21,3 km/h (4 Bft)
12.12.2011 20:18 13,5 C 6,4 C 0,0 UV-I 0,0 C 51 % 82 % 0 % 1009,4 hPa 0,0 l/m 9,2 km/h (2 Bft) 0 min 0 min 10,8 km/h (2 Bft)
12.12.2011 20:20 13,5 C 6,4 C 0,0 UV-I 0,0 C 51 % 82 % 0 % 1009,4 hPa 0,0 l/m 9,2 km/h (2 Bft) 0 min 0 min 10,8 km/h (2 Bft)
12.12.2011 20:22 13,3 C 6,3 C 0,0 UV-I 0,0 C 51 % 82 % 0 % 1009,4 hPa 0,0 l/m 9,2 km/h (2 Bft) 0 min 0 min 15,7 km/h (3 Bft)
12.12.2011 20:24 13,3 C 6,3 C 0,0 UV-I 0,0 C 52 % 82 % 0 % 1009,1 hPa 0,0 l/m 9,2 km/h (2 Bft) 0 min 0 min 15,7 km/h (3 Bft)
12.12.2011 20:26 13,4 C 6,3 C 0,0 UV-I 0,0 C 52 % 82 % 0 % 1009,1 hPa 0,0 l/m 9,6 km/h (2 Bft) 0 min 0 min 22,9 km/h (4 Bft)
12.12.2011 20:28 13,4 C 6,4 C 0,0 UV-I 0,0 C 52 % 82 % 0 % 1009,1 hPa 0,0 l/m 10,0 km/h (2 Bft) 0 min 0 min 22,9 km/h (4 Bft)
12.12.2011 20:30 13,4 C 6,4 C 0,0 UV-I 0,0 C 52 % 82 % 0 % 1009,1 hPa 0,0 l/m 9,2 km/h (2 Bft) 0 min 0 min 18,9 km/h (3 Bft)
12.12.2011 20:32 13,4 C 6,3 C 0,0 UV-I 0,0 C 52 % 82 % 0 % 1009,1 hPa 0,0 l/m 8,8 km/h (2 Bft) 0 min 0 min 5,2 km/h (1 Bft)
12.12.2011 20:34 13,4 C 6,3 C 0,0 UV-I 0,0 C 52 % 82 % 0 % 1009,1 hPa 0,0 l/m 9,2 km/h (2 Bft) 0 min 0 min 18,5 km/h (3 Bft)
12.12.2011 20:36 13,4 C 6,3 C 0,0 UV-I 0,0 C 52 % 82 % 0 % 1009,1 hPa 0,0 l/m 8,8 km/h (2 Bft) 0 min 0 min 18,5 km/h (3 Bft)
12.12.2011 20:38 13,4 C 6,4 C 0,0 UV-I 0,0 C 52 % 82 % 0 % 1009,1 hPa 0,0 l/m 8,4 km/h (2 Bft) 0 min 0 min 7,6 km/h (2 Bft)
12.12.2011 20:40 13,4 C 6,4 C 0,0 UV-I 0,0 C 52 % 82 % 0 % 1009,1 hPa 0,0 l/m 8,0 km/h (2 Bft) 0 min 0 min 12,4 km/h (3 Bft)
12.12.2011 20:42 13,4 C 6,3 C 0,0 UV-I 0,0 C 52 % 82 % 0 % 1009,1 hPa 0,0 l/m 7,6 km/h (2 Bft) 0 min 0 min 12,4 km/h (3 Bft)
12.12.2011 20:44 13,4 C 6,3 C 0,0 UV-I 0,0 C 52 % 82 % 0 % 1008,8 hPa 0,0 l/m 7,2 km/h (2 Bft) 0 min 0 min 6,0 km/h (2 Bft)
12.12.2011 20:46 13,4 C 6,3 C 0,0 UV-I 0,0 C 52 % 82 % 0 % 1008,8 hPa 0,0 l/m 7,6 km/h (2 Bft) 0 min 0 min 19,3 km/h (3 Bft)
12.12.2011 20:48 13,4 C 6,4 C 0,0 UV-I 0,0 C 52 % 82 % 0 % 1008,8 hPa 0,0 l/m 6,8 km/h (2 Bft) 0 min 0 min 19,3 km/h (3 Bft)
12.12.2011 20:50 13,4 C 6,3 C 0,0 UV-I 0,0 C 52 % 82 % 0 % 1008,8 hPa 0,0 l/m 7,2 km/h (2 Bft) 0 min 0 min 10,4 km/h (2 Bft)
12.12.2011 20:52 13,4 C 6,3 C 0,0 UV-I 0,0 C 52 % 82 % 0 % 1008,8 hPa 0,0 l/m 7,6 km/h (2 Bft) 0 min 0 min 10,4 km/h (2 Bft)
12.12.2011 20:54 13,4 C 6,4 C 0,0 UV-I 0,0 C 52 % 82 % 0 % 1008,8 hPa 0,0 l/m 8,0 km/h (2 Bft) 0 min 0 min 10,4 km/h (2 Bft)
12.12.2011 20:56 13,4 C 6,3 C 0,0 UV-I 0,0 C 52 % 82 % 0 % 1008,8 hPa 0,0 l/m 7,6 km/h (2 Bft) 0 min 0 min 10,4 km/h (2 Bft)
12.12.2011 20:58 13,4 C 6,3 C 0,0 UV-I 0,0 C 52 % 82 % 0 % 1008,8 hPa 0,0 l/m 8,0 km/h (2 Bft) 0 min 0 min 13,3 km/h (3 Bft)
12.12.2011 21:00 13,4 C 6,3 C 0,0 UV-I 0,0 C 52 % 82 % 0 % 1008,8 hPa 0,0 l/m 8,4 km/h (2 Bft) 0 min 0 min 15,3 km/h (3 Bft)
12.12.2011 21:02 13,4 C 6,3 C 0,0 UV-I 0,0 C 52 % 82 % 0 % 1008,8 hPa 0,0 l/m 8,8 km/h (2 Bft) 0 min 0 min 15,3 km/h (3 Bft)
12.12.2011 21:06 13,4 C 6,3 C 0,0 UV-I 0,0 C 52 % 82 % 0 % 1008,9 hPa 0,0 l/m 8,8 km/h (2 Bft) 0 min 0 min 12,0 km/h (2 Bft)
12.12.2011 21:08 13,4 C 6,3 C 0,0 UV-I 0,0 C 52 % 82 % 0 % 1008,9 hPa 0,0 l/m 9,6 km/h (2 Bft) 0 min 0 min 11,6 km/h (2 Bft)
12.12.2011 21:10 13,4 C 6,4 C 0,0 UV-I 0,0 C 52 % 82 % 0 % 1008,9 hPa 0,0 l/m 9,6 km/h (2 Bft) 0 min 0 min 11,6 km/h (2 Bft)
12.12.2011 21:12 13,4 C 6,4 C 0,0 UV-I 0,0 C 52 % 81 % 0 % 1008,9 hPa 0,0 l/m 9,2 km/h (2 Bft) 0 min 0 min 13,7 km/h (3 Bft)
12.12.2011 21:14 13,4 C 6,4 C 0,0 UV-I 0,0 C 52 % 81 % 0 % 1008,9 hPa 0,0 l/m 9,2 km/h (2 Bft) 0 min 0 min 13,7 km/h (3 Bft)
12.12.2011 21:16 13,4 C 6,4 C 0,0 UV-I 0,0 C 52 % 81 % 0 % 1008,9 hPa 0,0 l/m 9,2 km/h (2 Bft) 0 min 0 min 16,9 km/h (3 Bft)
12.12.2011 21:18 13,4 C 6,4 C 0,0 UV-I 0,0 C 52 % 81 % 0 % 1008,9 hPa 0,0 l/m 9,6 km/h (2 Bft) 0 min 0 min 26,1 km/h (4 Bft)
12.12.2011 21:20 13,4 C 6,4 C 0,0 UV-I 0,0 C 52 % 81 % 0 % 1008,9 hPa 0,0 l/m 9,6 km/h (2 Bft) 0 min 0 min 26,1 km/h (4 Bft)
12.12.2011 21:22 13,4 C 6,4 C 0,0 UV-I 0,0 C 52 % 81 % 0 % 1008,9 hPa 0,0 l/m 9,6 km/h (2 Bft) 0 min 0 min 16,9 km/h (3 Bft)
12.12.2011 21:24 13,4 C 6,4 C 0,0 UV-I 0,0 C 52 % 81 % 0 % 1008,6 hPa 0,0 l/m 9,6 km/h (2 Bft) 0 min 0 min 17,7 km/h (3 Bft)
12.12.2011 21:26 13,4 C 6,4 C 0,0 UV-I 0,0 C 52 % 81 % 0 % 1008,6 hPa 0,0 l/m 10,0 km/h (2 Bft) 0 min 0 min 17,7 km/h (3 Bft)
12.12.2011 21:28 13,4 C 6,5 C 0,0 UV-I 0,0 C 52 % 81 % 0 % 1008,6 hPa 0,0 l/m 10,4 km/h (2 Bft) 0 min 0 min 19,3 km/h (3 Bft)
12.12.2011 21:30 13,4 C 6,5 C 0,0 UV-I 0,0 C 52 % 81 % 0 % 1008,6 hPa 0,0 l/m 9,6 km/h (2 Bft) 0 min 0 min 19,3 km/h (3 Bft)
12.12.2011 21:32 13,4 C 6,5 C 0,0 UV-I 0,0 C 52 % 81 % 0 % 1008,6 hPa 0,0 l/m 10,0 km/h (2 Bft) 0 min 0 min 10,4 km/h (2 Bft)
12.12.2011 21:34 13,4 C 6,5 C 0,0 UV-I 0,0 C 52 % 81 % 0 % 1008,6 hPa 0,0 l/m 8,8 km/h (2 Bft) 0 min 0 min 10,4 km/h (2 Bft)
12.12.2011 21:36 13,4 C 6,5 C 0,0 UV-I 0,0 C 52 % 81 % 0 % 1008,6 hPa 0,0 l/m 8,0 km/h (2 Bft) 0 min 0 min 9,6 km/h (2 Bft)
12.12.2011 21:38 13,4 C 6,4 C 0,0 UV-I 0,0 C 52 % 81 % 0 % 1008,6 hPa 0,0 l/m 7,6 km/h (2 Bft) 0 min 0 min 9,2 km/h (2 Bft)
12.12.2011 21:40 13,4 C 6,4 C 0,0 UV-I 0,0 C 52 % 81 % 0 % 1008,6 hPa 0,0 l/m 7,2 km/h (2 Bft) 0 min 0 min 9,2 km/h (2 Bft)
12.12.2011 21:42 13,4 C 6,4 C 0,0 UV-I 0,0 C 52 % 81 % 0 % 1008,6 hPa 0,0 l/m 6,4 km/h (2 Bft) 0 min 0 min 7,6 km/h (2 Bft)
12.12.2011 21:44 13,4 C 6,4 C 0,0 UV-I 0,0 C 52 % 81 % 0 % 1008,6 hPa 0,0 l/m 5,6 km/h (1 Bft) 0 min 0 min 6,0 km/h (2 Bft)
12.12.2011 21:46 13,4 C 6,3 C 0,0 UV-I 0,0 C 52 % 81 % 0 % 1008,6 hPa 0,0 l/m 6,4 km/h (2 Bft) 0 min 0 min 8,4 km/h (2 Bft)
12.12.2011 21:48 13,4 C 6,3 C 0,0 UV-I 0,0 C 52 % 81 % 0 % 1008,6 hPa 0,0 l/m 6,4 km/h (2 Bft) 0 min 0 min 8,4 km/h (2 Bft)
12.12.2011 21:50 13,4 C 6,3 C 0,0 UV-I 0,0 C 52 % 81 % 0 % 1008,6 hPa 0,0 l/m 6,4 km/h (2 Bft) 0 min 0 min 16,5 km/h (3 Bft)
12.12.2011 21:52 13,4 C 6,3 C 0,0 UV-I 0,0 C 52 % 81 % 0 % 1008,6 hPa 0,0 l/m 6,0 km/h (2 Bft) 0 min 0 min 16,5 km/h (3 Bft)
12.12.2011 21:54 13,4 C 6,3 C 0,0 UV-I 0,0 C 52 % 81 % 0 % 1008,6 hPa 0,0 l/m 6,0 km/h (2 Bft) 0 min 0 min 7,6 km/h (2 Bft)
12.12.2011 21:56 13,3 C 6,3 C 0,0 UV-I 0,0 C 52 % 81 % 0 % 1008,6 hPa 0,0 l/m 6,8 km/h (2 Bft) 0 min 0 min 18,5 km/h (3 Bft)
12.12.2011 21:58 13,4 C 6,3 C 0,0 UV-I 0,0 C 52 % 81 % 0 % 1008,6 hPa 0,0 l/m 6,8 km/h (2 Bft) 0 min 0 min 18,5 km/h (3 Bft)
12.12.2011 22:00 13,3 C 6,2 C 0,0 UV-I 0,0 C 52 % 81 % 0 % 1008,6 hPa 0,0 l/m 6,8 km/h (2 Bft) 0 min 0 min 12,8 km/h (3 Bft)
12.12.2011 22:02 13,3 C 6,2 C 0,0 UV-I 0,0 C 52 % 81 % 0 % 1008,6 hPa 0,0 l/m 6,4 km/h (2 Bft) 0 min 0 min 12,8 km/h (3 Bft)
12.12.2011 22:06 13,5 C 6,3 C 0,0 UV-I 0,0 C 52 % 81 % 0 % 1008,6 hPa 0,0 l/m 7,6 km/h (2 Bft) 0 min 0 min 13,3 km/h (3 Bft)
12.12.2011 22:08 13,5 C 6,2 C 0,0 UV-I 0,0 C 52 % 81 % 0 % 1008,6 hPa 0,0 l/m 7,2 km/h (2 Bft) 0 min 0 min 13,3 km/h (3 Bft)
12.12.2011 22:10 13,5 C 6,3 C 0,0 UV-I 0,0 C 52 % 81 % 0 % 1008,6 hPa 0,0 l/m 6,8 km/h (2 Bft) 0 min 0 min 8,8 km/h (2 Bft)
12.12.2011 22:12 13,5 C 6,2 C 0,0 UV-I 0,0 C 52 % 81 % 0 % 1008,6 hPa 0,0 l/m 6,8 km/h (2 Bft) 0 min 0 min 19,3 km/h (3 Bft)
12.12.2011 22:14 13,5 C 6,3 C 0,0 UV-I 0,0 C 52 % 81 % 0 % 1008,6 hPa 0,0 l/m 7,2 km/h (2 Bft) 0 min 0 min 19,3 km/h (3 Bft)
12.12.2011 22:16 13,5 C 6,3 C 0,0 UV-I 0,0 C 52 % 81 % 0 % 1008,6 hPa 0,0 l/m 7,6 km/h (2 Bft) 0 min 0 min 11,2 km/h (2 Bft)
12.12.2011 22:18 13,3 C 6,4 C 0,0 UV-I 0,0 C 52 % 81 % 0 % 1008,6 hPa 0,0 l/m 8,0 km/h (2 Bft) 0 min 0 min 11,2 km/h (2 Bft)
12.12.2011 22:20 13,5 C 6,4 C 0,0 UV-I 0,0 C 52 % 81 % 0 % 1008,6 hPa 0,0 l/m 8,0 km/h (2 Bft) 0 min 0 min 8,0 km/h (2 Bft)
12.12.2011 22:22 13,5 C 6,3 C 0,0 UV-I 0,0 C 52 % 81 % 0 % 1008,6 hPa 0,0 l/m 7,6 km/h (2 Bft) 0 min 0 min 7,2 km/h (2 Bft)
12.12.2011 22:24 13,5 C 6,3 C 0,0 UV-I 0,0 C 52 % 81 % 0 % 1008,3 hPa 0,0 l/m 7,2 km/h (2 Bft) 0 min 0 min 8,0 km/h (2 Bft)
12.12.2011 22:26 13,5 C 6,3 C 0,0 UV-I 0,0 C 52 % 81 % 0 % 1008,3 hPa 0,0 l/m 6,4 km/h (2 Bft) 0 min 0 min 8,0 km/h (2 Bft)
12.12.2011 22:28 13,5 C 6,3 C 0,0 UV-I 0,0 C 52 % 81 % 0 % 1008,3 hPa 0,0 l/m 5,6 km/h (1 Bft) 0 min 0 min 8,4 km/h (2 Bft)
12.12.2011 22:30 13,5 C 6,3 C 0,0 UV-I 0,0 C 52 % 81 % 0 % 1008,3 hPa 0,0 l/m 5,6 km/h (1 Bft) 0 min 0 min 8,4 km/h (2 Bft)
12.12.2011 22:32 13,5 C 6,3 C 0,0 UV-I 0,0 C 52 % 81 % 0 % 1008,3 hPa 0,0 l/m 5,6 km/h (1 Bft) 0 min 0 min 6,4 km/h (2 Bft)
12.12.2011 22:34 13,5 C 6,3 C 0,0 UV-I 0,0 C 52 % 81 % 0 % 1008,3 hPa 0,0 l/m 5,6 km/h (1 Bft) 0 min 0 min 9,6 km/h (2 Bft)
12.12.2011 22:36 13,5 C 6,2 C 0,0 UV-I 0,0 C 52 % 81 % 0 % 1008,3 hPa 0,0 l/m 5,6 km/h (1 Bft) 0 min 0 min 9,6 km/h (2 Bft)
12.12.2011 22:38 13,5 C 6,2 C 0,0 UV-I 0,0 C 52 % 81 % 0 % 1008,3 hPa 0,0 l/m 5,6 km/h (1 Bft) 0 min 0 min 7,6 km/h (2 Bft)
12.12.2011 22:40 13,5 C 6,2 C 0,0 UV-I 0,0 C 52 % 81 % 0 % 1008,3 hPa 0,0 l/m 5,6 km/h (1 Bft) 0 min 0 min 8,0 km/h (2 Bft)
12.12.2011 22:42 13,5 C 6,3 C 0,0 UV-I 0,0 C 52 % 81 % 0 % 1008,3 hPa 0,0 l/m 6,4 km/h (2 Bft) 0 min 0 min 8,0 km/h (2 Bft)
12.12.2011 22:44 13,5 C 6,3 C 0,0 UV-I 0,0 C 52 % 81 % 0 % 1007,9 hPa 0,0 l/m 6,8 km/h (2 Bft) 0 min 0 min 21,7 km/h (4 Bft)
12.12.2011 22:46 13,5 C 6,3 C 0,0 UV-I 0,0 C 52 % 81 % 0 % 1007,9 hPa 0,0 l/m 7,2 km/h (2 Bft) 0 min 0 min 21,7 km/h (4 Bft)
12.12.2011 22:48 13,5 C 6,3 C 0,0 UV-I 0,0 C 52 % 81 % 0 % 1007,9 hPa 0,0 l/m 7,6 km/h (2 Bft) 0 min 0 min 16,5 km/h (3 Bft)
12.12.2011 22:50 13,5 C 6,3 C 0,0 UV-I 0,0 C 52 % 81 % 0 % 1007,9 hPa 0,0 l/m 8,0 km/h (2 Bft) 0 min 0 min 14,9 km/h (3 Bft)
12.12.2011 22:52 13,4 C 6,3 C 0,0 UV-I 0,0 C 52 % 81 % 0 % 1007,9 hPa 0,0 l/m 8,0 km/h (2 Bft) 0 min 0 min 14,9 km/h (3 Bft)
12.12.2011 22:54 13,5 C 6,3 C 0,0 UV-I 0,0 C 52 % 81 % 0 % 1007,9 hPa 0,0 l/m 8,4 km/h (2 Bft) 0 min 0 min 12,8 km/h (3 Bft)
12.12.2011 22:56 13,5 C 6,3 C 0,0 UV-I 0,0 C 52 % 81 % 0 % 1007,9 hPa 0,0 l/m 8,8 km/h (2 Bft) 0 min 0 min 15,3 km/h (3 Bft)
12.12.2011 22:58 13,5 C 6,3 C 0,0 UV-I 0,0 C 52 % 81 % 0 % 1007,9 hPa 0,0 l/m 9,2 km/h (2 Bft) 0 min 0 min 16,9 km/h (3 Bft)
12.12.2011 23:00 13,5 C 6,4 C 0,0 UV-I 0,0 C 52 % 80 % 0 % 1007,9 hPa 0,0 l/m 9,6 km/h (2 Bft) 0 min 0 min 16,9 km/h (3 Bft)
12.12.2011 23:02 13,5 C 6,4 C 0,0 UV-I 0,0 C 52 % 80 % 0 % 1007,9 hPa 0,0 l/m 9,2 km/h (2 Bft) 0 min 0 min 8,8 km/h (2 Bft)
12.12.2011 23:06 13,4 C 6,4 C 0,0 UV-I 0,0 C 52 % 80 % 0 % 1008,1 hPa 0,0 l/m 9,6 km/h (2 Bft) 0 min 0 min 16,9 km/h (3 Bft)
12.12.2011 23:08 13,4 C 6,5 C 0,0 UV-I 0,0 C 52 % 80 % 0 % 1008,1 hPa 0,0 l/m 9,2 km/h (2 Bft) 0 min 0 min 11,6 km/h (2 Bft)
12.12.2011 23:10 13,5 C 6,4 C 0,0 UV-I 0,0 C 52 % 80 % 0 % 1008,1 hPa 0,0 l/m 8,0 km/h (2 Bft) 0 min 0 min 10,8 km/h (2 Bft)
12.12.2011 23:12 13,5 C 6,4 C 0,0 UV-I 0,0 C 52 % 80 % 0 % 1008,1 hPa 0,0 l/m 8,8 km/h (2 Bft) 0 min 0 min 8,4 km/h (2 Bft)
12.12.2011 23:14 13,5 C 6,4 C 0,0 UV-I 0,0 C 52 % 80 % 0 % 1008,1 hPa 0,0 l/m 9,2 km/h (2 Bft) 0 min 0 min 18,5 km/h (3 Bft)
12.12.2011 23:16 13,5 C 6,4 C 0,0 UV-I 0,0 C 52 % 80 % 0 % 1008,1 hPa 0,0 l/m 8,0 km/h (2 Bft) 0 min 0 min 18,5 km/h (3 Bft)
12.12.2011 23:18 13,5 C 6,4 C 0,0 UV-I 0,0 C 52 % 80 % 0 % 1008,1 hPa 0,0 l/m 7,6 km/h (2 Bft) 0 min 0 min 9,2 km/h (2 Bft)
12.12.2011 23:20 13,5 C 6,4 C 0,0 UV-I 0,0 C 52 % 80 % 0 % 1008,1 hPa 0,0 l/m 7,6 km/h (2 Bft) 0 min 0 min 12,8 km/h (3 Bft)
12.12.2011 23:22 13,5 C 6,4 C 0,0 UV-I 0,0 C 52 % 80 % 0 % 1008,1 hPa 0,0 l/m 7,6 km/h (2 Bft) 0 min 0 min 12,8 km/h (3 Bft)
12.12.2011 23:24 13,5 C 6,4 C 0,0 UV-I 0,0 C 52 % 80 % 0 % 1007,9 hPa 0,0 l/m 7,6 km/h (2 Bft) 0 min 0 min 12,0 km/h (2 Bft)
12.12.2011 23:26 13,5 C 6,4 C 0,0 UV-I 0,0 C 52 % 79 % 0 % 1007,9 hPa 0,0 l/m 8,0 km/h (2 Bft) 0 min 0 min 11,2 km/h (2 Bft)
12.12.2011 23:28 13,5 C 6,4 C 0,0 UV-I 0,0 C 52 % 79 % 0 % 1007,9 hPa 0,0 l/m 8,0 km/h (2 Bft) 0 min 0 min 11,2 km/h (2 Bft)
12.12.2011 23:30 13,5 C 6,4 C 0,0 UV-I 0,0 C 52 % 79 % 0 % 1007,9 hPa 0,0 l/m 8,8 km/h (2 Bft) 0 min 0 min 20,9 km/h (4 Bft)
12.12.2011 23:32 13,5 C 6,4 C 0,0 UV-I 0,0 C 52 % 79 % 0 % 1007,9 hPa 0,0 l/m 8,8 km/h (2 Bft) 0 min 0 min 20,9 km/h (4 Bft)
12.12.2011 23:34 13,4 C 6,4 C 0,0 UV-I 0,0 C 52 % 79 % 0 % 1007,9 hPa 0,0 l/m 9,2 km/h (2 Bft) 0 min 0 min 21,7 km/h (4 Bft)
12.12.2011 23:36 13,4 C 6,5 C 0,0 UV-I 0,0 C 52 % 79 % 0 % 1007,9 hPa 0,0 l/m 9,6 km/h (2 Bft) 0 min 0 min 21,7 km/h (4 Bft)
12.12.2011 23:38 13,4 C 6,4 C 0,0 UV-I 0,0 C 52 % 79 % 0 % 1007,9 hPa 0,0 l/m 9,2 km/h (2 Bft) 0 min 0 min 16,1 km/h (3 Bft)
12.12.2011 23:40 13,4 C 6,5 C 0,0 UV-I 0,0 C 52 % 79 % 0 % 1007,9 hPa 0,0 l/m 10,0 km/h (2 Bft) 0 min 0 min 12,4 km/h (3 Bft)
12.12.2011 23:42 13,5 C 6,5 C 0,0 UV-I 0,0 C 52 % 79 % 0 % 1007,9 hPa 0,0 l/m 10,0 km/h (2 Bft) 0 min 0 min 12,4 km/h (3 Bft)
12.12.2011 23:44 13,5 C 6,5 C 0,0 UV-I 0,0 C 52 % 79 % 0 % 1007,9 hPa 0,0 l/m 10,0 km/h (2 Bft) 0 min 0 min 8,0 km/h (2 Bft)
12.12.2011 23:46 13,4 C 6,5 C 0,0 UV-I 0,0 C 52 % 79 % 0 % 1007,9 hPa 0,0 l/m 10,4 km/h (2 Bft) 0 min 0 min 28,9 km/h (5 Bft)
12.12.2011 23:48 13,4 C 6,5 C 0,0 UV-I 0,0 C 51 % 79 % 0 % 1007,9 hPa 0,0 l/m 9,6 km/h (2 Bft) 0 min 0 min 28,9 km/h (5 Bft)
12.12.2011 23:50 13,4 C 6,5 C 0,0 UV-I 0,0 C 52 % 79 % 0 % 1007,9 hPa 0,0 l/m 8,8 km/h (2 Bft) 0 min 0 min 17,7 km/h (3 Bft)
12.12.2011 23:52 13,4 C 6,5 C 0,0 UV-I 0,0 C 51 % 79 % 0 % 1007,9 hPa 0,0 l/m 8,0 km/h (2 Bft) 0 min 0 min 7,2 km/h (2 Bft)
12.12.2011 23:54 13,4 C 6,5 C 0,0 UV-I 0,0 C 51 % 79 % 0 % 1007,9 hPa 0,0 l/m 7,6 km/h (2 Bft) 0 min 0 min 11,2 km/h (2 Bft)
12.12.2011 23:56 13,4 C 6,5 C 0,0 UV-I 0,0 C 51 % 79 % 0 % 1007,9 hPa 0,0 l/m 7,2 km/h (2 Bft) 0 min 0 min 14,9 km/h (3 Bft)
12.12.2011 23:58 13,4 C 6,5 C 0,0 UV-I 0,0 C 51 % 79 % 0 % 1007,9 hPa 0,0 l/m 6,8 km/h (2 Bft) 0 min 0 min 14,9 km/h (3 Bft)
_ Min-Zeit 20:22 01:20 00:00 00:00 00:00 15:04 00:00 06:44 - 07:10 - - 01:05
Minimum _ 13,3 C 4,7 C 0,0 UV-I 0,0 C 48 % 73 % 0 % 999,4 hPa - 0,8 km/h (0 Bft) - - 0,0 km/h (0 Bft)
_ Max-Zeit 14:34 08:14 13:08 14:02 09:10 07:16 14:02 19:44 02:40 13:02 13:54 01:10 20:12
Maximum _ 15,2 C 8,3 C 0,1 UV-I 2,8 C 58 % 91 % 80 % 1010,1 hPa 0,1 l/m 12,8 km/h
W-SW (3 Bft)
2 min 2 min 42,6 km/h
S (6 Bft)
Durchschnitt _ 14,0 C 6,8 C 0,0 UV-I 0,1 C 52 % 84 % 3 % 1005,1 hPa #3,5 l/m 7,6 km/h (2 Bft) #40 min. #2:38 h 12,5 km/h (3 Bft)
© 2012 W. Hausmann